SJX005 KLAX-RCTP

Flight info

Callsign SJX005
Flight time 13h 18m
Altitude 36000
Route SUMMR2 MCKEY DCT LIBBO DCT BRINY DCT BOARS DCT AMAKR DCT LINUZ DCT NATTE DCT ZANNG DCT 50N140W 54N150W/N0493F380 56N160W DCT CREMR DCT OBOYD DCT NIKLL/N0500F400 R220 NOGAL/N0489F410 R220 NODAN/N0489F400 R217 SDE Y512 GTC Y142 SAMON Y14 MIHOU Y206 KALEK Z84 PSN Y572 POVOR/N0491F430 Y572 CJU Z82 PANSI Y711 MUGUS Y742 SALMI B576 BAKER BAKER1A
Aircraft A359/H-SDE2E3GHIJ3J4J5LM1ORWXY/LB1D1

Departure

Time 2026-04-25 05:04
Airport Los Angeles International Airport (KLAX)

Arrival

Time 2026-04-25 18:23
Airport Taiwan Taoyuan International Airport (RCTP)
Time Latitude Longitude Altitude Speed Heading
2026-04-25 04:40 33.94263 -118.41105 101 ft 0 kts 83°
2026-04-25 04:53 33.94261 -118.41121 101 ft 4 kts 83°
2026-04-25 04:53 33.94258 -118.41153 98 ft 4 kts 83°
2026-04-25 04:54 33.94255 -118.41179 98 ft 4 kts 75°
2026-04-25 04:54 33.94244 -118.41205 97 ft 4 kts 34°
2026-04-25 04:54 33.94222 -118.41214 98 ft 2 kts 353°
2026-04-25 04:54 33.94195 -118.41210 100 ft 4 kts 353°
2026-04-25 04:55 33.94189 -118.41209 98 ft 0 kts 353°
2026-04-25 04:59 33.94198 -118.41210 100 ft 3 kts 354°
2026-04-25 04:59 33.94234 -118.41215 98 ft 8 kts 352°
2026-04-25 04:59 33.94302 -118.41227 101 ft 12 kts 352°
2026-04-25 04:59 33.94396 -118.41241 100 ft 15 kts 352°
2026-04-25 05:00 33.94515 -118.41260 100 ft 19 kts 352°
2026-04-25 05:00 33.94654 -118.41279 100 ft 21 kts 354°
2026-04-25 05:00 33.94786 -118.41267 103 ft 18 kts 44°
2026-04-25 05:00 33.94808 -118.41124 102 ft 18 kts 83°
2026-04-25 05:01 33.94824 -118.40971 102 ft 19 kts 82°
2026-04-25 05:01 33.94842 -118.40808 102 ft 20 kts 82°
2026-04-25 05:01 33.94860 -118.40637 100 ft 21 kts 83°
2026-04-25 05:01 33.94878 -118.40458 103 ft 22 kts 83°
2026-04-25 05:02 33.94896 -118.40272 102 ft 23 kts 83°
2026-04-25 05:02 33.94916 -118.40094 102 ft 15 kts 81°
2026-04-25 05:02 33.94927 -118.39981 99 ft 14 kts 80°
2026-04-25 05:02 33.94989 -118.39912 101 ft 13 kts 11°
2026-04-25 05:03 33.95047 -118.39941 102 ft 6 kts 280°
2026-04-25 05:03 33.95038 -118.39995 103 ft 7 kts 260°
2026-04-25 05:03 33.95025 -118.40121 103 ft 40 kts 262°
2026-04-25 05:03 33.94958 -118.40777 104 ft 117 kts 263°
2026-04-25 05:04 33.94832 -118.42027 171 ft 174 kts 263°
2026-04-25 05:04 33.94677 -118.43498 911 ft 180 kts 262°
2026-04-25 05:04 33.94522 -118.44979 1638 ft 180 kts 263°
2026-04-25 05:04 33.94371 -118.46536 1871 ft 194 kts 263°
2026-04-25 05:05 33.94261 -118.48223 2082 ft 210 kts 268°
2026-04-25 05:05 33.94220 -118.50066 2252 ft 230 kts 269°
2026-04-25 05:05 33.94160 -118.52062 2505 ft 246 kts 266°
2026-04-25 05:05 33.94001 -118.54146 2976 ft 253 kts 264°
2026-04-25 05:06 33.93823 -118.56268 3522 ft 256 kts 264°
2026-04-25 05:06 33.93646 -118.58417 4060 ft 260 kts 264°
2026-04-25 05:06 33.93434 -118.60591 4603 ft 263 kts 259°
2026-04-25 05:06 33.93070 -118.61980 4952 ft 265 kts 244°
2026-04-25 05:07 33.91926 -118.63701 5493 ft 267 kts 217°
2026-04-25 05:07 33.90234 -118.64613 6023 ft 270 kts 190°
2026-04-25 05:07 33.88363 -118.64863 6567 ft 272 kts 186°
2026-04-25 05:07 33.86561 -118.65530 7053 ft 274 kts 211°
2026-04-25 05:08 33.85191 -118.67103 7581 ft 275 kts 238°
2026-04-25 05:08 33.84503 -118.69243 8112 ft 277 kts 258°
2026-04-25 05:08 33.84154 -118.71530 8648 ft 279 kts 261°
2026-04-25 05:08 33.83857 -118.73843 9189 ft 282 kts 261°
2026-04-25 05:09 33.83563 -118.76184 9738 ft 284 kts 261°
2026-04-25 05:09 33.83268 -118.78547 10243 ft 288 kts 261°
2026-04-25 05:09 33.82965 -118.80979 10490 ft 302 kts 261°
2026-04-25 05:09 33.82650 -118.83507 10709 ft 315 kts 261°
2026-04-25 05:10 33.82537 -118.86216 10913 ft 329 kts 275°
2026-04-25 05:10 33.83130 -118.88918 11125 ft 341 kts 296°
2026-04-25 05:10 33.84415 -118.91361 11330 ft 353 kts 307°
2026-04-25 05:10 33.86013 -118.93665 11547 ft 364 kts 312°
2026-04-25 05:11 33.87784 -118.95907 11759 ft 374 kts 314°
2026-04-25 05:11 33.89631 -118.98145 12081 ft 380 kts 315°
2026-04-25 05:11 33.91500 -119.00410 12493 ft 383 kts 314°
2026-04-25 05:12 33.95230 -119.05055 13334 ft 388 kts 313°
2026-04-25 05:12 33.97090 -119.07430 13747 ft 390 kts 313°
2026-04-25 05:12 33.98952 -119.09827 14130 ft 393 kts 313°
2026-04-25 05:12 34.00824 -119.12249 14534 ft 395 kts 313°
2026-04-25 05:13 34.02675 -119.14648 14919 ft 398 kts 313°
2026-04-25 05:13 34.04587 -119.17127 15325 ft 400 kts 313°
2026-04-25 05:13 34.06469 -119.19566 15696 ft 402 kts 313°
2026-04-25 05:13 34.08380 -119.22044 16067 ft 405 kts 313°
2026-04-25 05:14 34.10301 -119.24535 16435 ft 407 kts 313°
2026-04-25 05:14 34.12232 -119.27039 16805 ft 409 kts 313°
2026-04-25 05:14 34.14178 -119.29565 17165 ft 411 kts 313°
2026-04-25 05:15 34.18087 -119.34644 17862 ft 415 kts 313°
2026-04-25 05:15 34.20060 -119.37212 18208 ft 418 kts 313°
2026-04-25 05:15 34.22041 -119.39789 18531 ft 420 kts 313°
2026-04-25 05:15 34.24032 -119.42384 18862 ft 422 kts 313°
2026-04-25 05:16 34.26033 -119.44992 19181 ft 424 kts 313°
2026-04-25 05:16 34.28037 -119.47608 19495 ft 426 kts 313°
2026-04-25 05:16 34.30047 -119.50232 19804 ft 427 kts 313°
2026-04-25 05:16 34.32078 -119.52887 20107 ft 429 kts 313°
2026-04-25 05:17 34.34104 -119.55537 20417 ft 431 kts 313°
2026-04-25 05:17 34.36146 -119.58209 20713 ft 433 kts 313°
2026-04-25 05:17 34.38195 -119.60893 21012 ft 435 kts 312°
2026-04-25 05:17 34.40247 -119.63583 21311 ft 437 kts 312°
2026-04-25 05:18 34.42320 -119.66302 21601 ft 439 kts 312°
2026-04-25 05:18 34.44367 -119.68989 21874 ft 441 kts 312°
2026-04-25 05:18 34.46454 -119.71731 22115 ft 443 kts 312°
2026-04-25 05:18 34.48551 -119.74488 22367 ft 446 kts 312°
2026-04-25 05:19 34.50662 -119.77267 22571 ft 448 kts 312°
2026-04-25 05:19 34.52783 -119.80060 22735 ft 452 kts 312°
2026-04-25 05:19 34.54916 -119.82871 23012 ft 452 kts 312°
2026-04-25 05:19 34.57044 -119.85679 23323 ft 453 kts 312°
2026-04-25 05:20 34.59181 -119.88501 23573 ft 455 kts 312°
2026-04-25 05:20 34.61321 -119.91329 23826 ft 456 kts 312°
2026-04-25 05:20 34.63466 -119.94165 24077 ft 458 kts 312°
2026-04-25 05:20 34.65623 -119.97021 24297 ft 459 kts 312°
2026-04-25 05:21 34.67788 -119.99888 24541 ft 461 kts 312°
2026-04-25 05:21 34.69932 -120.02731 24781 ft 463 kts 312°
2026-04-25 05:21 34.72133 -120.05651 24985 ft 464 kts 312°
2026-04-25 05:21 34.74287 -120.08512 25207 ft 466 kts 312°
2026-04-25 05:22 34.76475 -120.11420 25437 ft 467 kts 312°
2026-04-25 05:22 34.78678 -120.14350 25660 ft 469 kts 312°
2026-04-25 05:22 34.80878 -120.17279 25884 ft 470 kts 312°
2026-04-25 05:22 34.83090 -120.20227 26109 ft 472 kts 312°
2026-04-25 05:23 34.85303 -120.23179 26347 ft 473 kts 312°
2026-04-25 05:23 34.87523 -120.26142 26609 ft 474 kts 312°
2026-04-25 05:23 34.89748 -120.29115 26826 ft 476 kts 312°
2026-04-25 05:23 34.91979 -120.32098 27061 ft 477 kts 312°
2026-04-25 05:24 34.94222 -120.35100 27295 ft 479 kts 312°
2026-04-25 05:24 34.96460 -120.38098 27520 ft 480 kts 312°
2026-04-25 05:24 34.98715 -120.41121 27730 ft 482 kts 312°
2026-04-25 05:24 35.00971 -120.44147 27955 ft 483 kts 312°
2026-04-25 05:25 35.03238 -120.47192 28170 ft 485 kts 312°
2026-04-25 05:25 35.05505 -120.50239 28373 ft 486 kts 312°
2026-04-25 05:25 35.07786 -120.53309 28560 ft 488 kts 312°
2026-04-25 05:25 35.10070 -120.56384 28753 ft 489 kts 312°
2026-04-25 05:26 35.12359 -120.59469 28951 ft 490 kts 312°
2026-04-25 05:26 35.14643 -120.62551 29139 ft 492 kts 312°
2026-04-25 05:26 35.16906 -120.65606 29309 ft 493 kts 312°
2026-04-25 05:26 35.19224 -120.68739 29470 ft 495 kts 312°
2026-04-25 05:27 35.21558 -120.71896 29703 ft 495 kts 312°
2026-04-25 05:27 35.23837 -120.74982 29963 ft 494 kts 312°
2026-04-25 05:27 35.26141 -120.78104 30194 ft 494 kts 312°
2026-04-25 05:27 35.28438 -120.81219 30399 ft 494 kts 312°
2026-04-25 05:28 35.30746 -120.84353 30663 ft 494 kts 312°
2026-04-25 05:28 35.33038 -120.87468 30962 ft 492 kts 311°
2026-04-25 05:28 35.35325 -120.90579 31250 ft 491 kts 311°
2026-04-25 05:28 35.37610 -120.93690 31505 ft 490 kts 311°
2026-04-25 05:29 35.39888 -120.96795 31745 ft 490 kts 311°
2026-04-25 05:29 35.42153 -120.99885 31977 ft 489 kts 311°
2026-04-25 05:29 35.44438 -121.03004 32219 ft 489 kts 311°
2026-04-25 05:29 35.46704 -121.06100 32435 ft 488 kts 311°
2026-04-25 05:30 35.48969 -121.09198 32655 ft 488 kts 311°
2026-04-25 05:30 35.51209 -121.12328 32869 ft 487 kts 310°
2026-04-25 05:30 35.53408 -121.15490 33079 ft 487 kts 310°
2026-04-25 05:30 35.55591 -121.18669 33286 ft 486 kts 310°
2026-04-25 05:31 35.57768 -121.21844 33489 ft 486 kts 310°
2026-04-25 05:31 35.59948 -121.25018 33695 ft 485 kts 310°
2026-04-25 05:31 35.62125 -121.28178 33895 ft 485 kts 310°
2026-04-25 05:31 35.64309 -121.31343 34077 ft 485 kts 310°
2026-04-25 05:32 35.66484 -121.34491 34270 ft 484 kts 310°
2026-04-25 05:32 35.68643 -121.37614 34447 ft 484 kts 310°
2026-04-25 05:32 35.70822 -121.40769 34637 ft 483 kts 310°
2026-04-25 05:32 35.73023 -121.43958 34802 ft 483 kts 310°
2026-04-25 05:33 35.75167 -121.47069 34985 ft 483 kts 310°
2026-04-25 05:33 35.79533 -121.53413 35125 ft 487 kts 310°
2026-04-25 05:34 35.83901 -121.59773 35575 ft 483 kts 310°
2026-04-25 05:34 35.86077 -121.62945 35687 ft 484 kts 310°
2026-04-25 05:34 35.88249 -121.66115 35744 ft 486 kts 310°
2026-04-25 05:35 35.92637 -121.72528 35837 ft 490 kts 310°
2026-04-25 05:35 35.97047 -121.78969 35939 ft 493 kts 311°
2026-04-25 05:36 36.02240 -121.84504 35998 ft 496 kts 328°
2026-04-25 05:36 36.08308 -121.88607 35994 ft 499 kts 333°
2026-04-25 05:37 36.14482 -121.92439 36001 ft 500 kts 333°
2026-04-25 05:37 36.20729 -121.96293 36000 ft 501 kts 333°
2026-04-25 05:38 36.26959 -122.00178 36002 ft 502 kts 333°
2026-04-25 05:38 36.33182 -122.04085 36000 ft 502 kts 333°
2026-04-25 05:39 36.39422 -122.08016 35997 ft 502 kts 333°
2026-04-25 05:39 36.45642 -122.11939 36003 ft 502 kts 333°
2026-04-25 05:40 36.51878 -122.15878 36001 ft 502 kts 333°
2026-04-25 05:40 36.58104 -122.19818 35999 ft 502 kts 333°
2026-04-25 05:41 36.64324 -122.23762 35999 ft 502 kts 333°
2026-04-25 05:41 36.70551 -122.27717 36001 ft 502 kts 333°
2026-04-25 05:42 36.76778 -122.31679 35997 ft 502 kts 333°
2026-04-25 05:42 36.82993 -122.35641 36002 ft 502 kts 333°
2026-04-25 05:43 36.89217 -122.39617 36001 ft 502 kts 333°
2026-04-25 05:43 36.95439 -122.43598 35997 ft 502 kts 333°
2026-04-25 05:44 37.01654 -122.47581 36001 ft 502 kts 333°
2026-04-25 05:44 37.07871 -122.51574 36000 ft 502 kts 333°
2026-04-25 05:45 37.14032 -122.55538 36003 ft 502 kts 333°
2026-04-25 05:45 37.20260 -122.59552 36000 ft 502 kts 332°
2026-04-25 05:46 37.26476 -122.63567 36000 ft 502 kts 332°
2026-04-25 05:46 37.32803 -122.67277 36000 ft 502 kts 337°
2026-04-25 05:47 37.39284 -122.70573 35999 ft 502 kts 338°
2026-04-25 05:47 37.45774 -122.73807 36002 ft 502 kts 338°
2026-04-25 05:48 37.52277 -122.77048 35997 ft 502 kts 338°
2026-04-25 05:48 37.58777 -122.80303 36000 ft 502 kts 338°
2026-04-25 05:49 37.65272 -122.83566 35999 ft 502 kts 338°
2026-04-25 05:49 37.71757 -122.86830 36001 ft 502 kts 338°
2026-04-25 05:50 37.78266 -122.90113 36000 ft 502 kts 338°
2026-04-25 05:50 37.84748 -122.93388 35997 ft 502 kts 338°
2026-04-25 05:51 37.91202 -122.96654 36002 ft 502 kts 338°
2026-04-25 05:51 37.97730 -122.99966 36002 ft 502 kts 338°
2026-04-25 05:52 38.04180 -123.03243 35995 ft 502 kts 338°
2026-04-25 05:52 38.10666 -123.06545 36001 ft 502 kts 338°
2026-04-25 05:53 38.17162 -123.09858 35998 ft 502 kts 338°
2026-04-25 05:53 38.23411 -123.13398 36333 ft 502 kts 329°
2026-04-25 05:53 38.26406 -123.15636 36139 ft 495 kts 323°
2026-04-25 05:54 38.29307 -123.17882 35975 ft 480 kts 321°
2026-04-25 05:54 38.37740 -123.24637 35978 ft 477 kts 322°
2026-04-25 05:55 38.42417 -123.28412 35954 ft 480 kts 322°
2026-04-25 05:55 38.48086 -123.32971 35953 ft 483 kts 322°
2026-04-25 05:56 38.53784 -123.37546 35966 ft 484 kts 323°
2026-04-25 05:56 38.59503 -123.42147 35960 ft 486 kts 323°
2026-04-25 05:57 38.65239 -123.46770 35960 ft 488 kts 323°
2026-04-25 05:57 38.70981 -123.51409 35966 ft 490 kts 323°
2026-04-25 05:58 38.76763 -123.56088 35963 ft 491 kts 323°
2026-04-25 05:58 38.82553 -123.60783 35966 ft 492 kts 323°
2026-04-25 05:59 38.88341 -123.65485 35964 ft 493 kts 324°
2026-04-25 05:59 38.94135 -123.70202 35964 ft 494 kts 324°
2026-04-25 06:00 38.99876 -123.74980 35983 ft 492 kts 320°
2026-04-25 06:00 39.05396 -123.80278 35981 ft 492 kts 319°
2026-04-25 06:01 39.10793 -123.85597 35978 ft 492 kts 319°
2026-04-25 06:01 39.16227 -123.90986 35980 ft 492 kts 319°
2026-04-25 06:02 39.21642 -123.96359 35973 ft 491 kts 319°
2026-04-25 06:02 39.27060 -124.01739 35980 ft 492 kts 319°
2026-04-25 06:03 39.32482 -124.07131 35977 ft 492 kts 319°
2026-04-25 06:03 39.37888 -124.12518 35978 ft 491 kts 319°
2026-04-25 06:04 39.43315 -124.17936 35981 ft 491 kts 319°
2026-04-25 06:04 39.48718 -124.23343 35982 ft 491 kts 319°
2026-04-25 06:05 39.54125 -124.28765 35976 ft 492 kts 319°
2026-04-25 06:05 39.59538 -124.34202 35976 ft 492 kts 319°
2026-04-25 06:06 39.64938 -124.39638 35980 ft 492 kts 319°
2026-04-25 06:06 39.70299 -124.45046 35987 ft 492 kts 319°
2026-04-25 06:07 39.75738 -124.50544 35979 ft 491 kts 319°
2026-04-25 06:07 39.81138 -124.56013 35980 ft 491 kts 319°
2026-04-25 06:08 39.86490 -124.61446 35981 ft 491 kts 319°
2026-04-25 06:08 39.91874 -124.66922 35981 ft 491 kts 319°
2026-04-25 06:09 39.97254 -124.72404 35982 ft 490 kts 319°
2026-04-25 06:09 40.02619 -124.77883 35986 ft 490 kts 319°
2026-04-25 06:10 40.07991 -124.83380 35988 ft 490 kts 319°
2026-04-25 06:10 40.13343 -124.88868 35993 ft 490 kts 320°
2026-04-25 06:11 40.18717 -124.94392 35987 ft 491 kts 320°
2026-04-25 06:11 40.24054 -124.99886 35989 ft 491 kts 320°
2026-04-25 06:12 40.29422 -125.05425 35989 ft 492 kts 320°
2026-04-25 06:12 40.34802 -125.10988 35988 ft 492 kts 320°
2026-04-25 06:13 40.40177 -125.16557 35989 ft 493 kts 320°
2026-04-25 06:14 40.48237 -125.24932 35994 ft 493 kts 320°
2026-04-25 06:14 40.53621 -125.30538 35996 ft 492 kts 320°
2026-04-25 06:15 40.58982 -125.36133 35980 ft 491 kts 320°
2026-04-25 06:15 40.64333 -125.41732 35996 ft 491 kts 320°
2026-04-25 06:16 40.69683 -125.47341 35996 ft 492 kts 321°
2026-04-25 06:16 40.75037 -125.52963 35999 ft 492 kts 321°
2026-04-25 06:17 40.80354 -125.58562 35998 ft 492 kts 321°
2026-04-25 06:17 40.85729 -125.64236 36000 ft 491 kts 321°
2026-04-25 06:18 40.91026 -125.69832 36002 ft 491 kts 321°
2026-04-25 06:18 40.96359 -125.75481 35994 ft 491 kts 320°
2026-04-25 06:19 41.01686 -125.81131 35997 ft 490 kts 320°
2026-04-25 06:19 41.07003 -125.86785 35993 ft 490 kts 320°
2026-04-25 06:20 41.12301 -125.92432 36011 ft 490 kts 320°
2026-04-25 06:20 41.17617 -125.98114 36010 ft 489 kts 321°
2026-04-25 06:21 41.22864 -126.03736 35996 ft 487 kts 321°
2026-04-25 06:21 41.28139 -126.09392 35997 ft 486 kts 321°
2026-04-25 06:22 41.33393 -126.15043 36010 ft 485 kts 321°
2026-04-25 06:22 41.38633 -126.20692 36005 ft 484 kts 321°
2026-04-25 06:23 41.43875 -126.26354 36015 ft 484 kts 321°
2026-04-25 06:23 41.49104 -126.32015 36014 ft 484 kts 321°
2026-04-25 06:24 41.54329 -126.37683 36019 ft 484 kts 321°
2026-04-25 06:24 41.59528 -126.43334 36010 ft 485 kts 321°
2026-04-25 06:25 41.64743 -126.49047 36011 ft 484 kts 319°
2026-04-25 06:25 41.69601 -126.55311 36016 ft 484 kts 316°
2026-04-25 06:26 41.74353 -126.61712 36016 ft 484 kts 315°
2026-04-25 06:26 41.79075 -126.68139 36019 ft 484 kts 315°
2026-04-25 06:27 41.83766 -126.74527 36041 ft 484 kts 315°
2026-04-25 06:27 41.88490 -126.80958 36046 ft 483 kts 315°
2026-04-25 06:28 41.93206 -126.87391 36040 ft 484 kts 315°
2026-04-25 06:28 41.97935 -126.93828 36038 ft 483 kts 315°
2026-04-25 06:29 42.02662 -127.00276 36045 ft 484 kts 315°
2026-04-25 06:29 42.07384 -127.06732 36045 ft 483 kts 315°
2026-04-25 06:30 42.12062 -127.13146 36063 ft 483 kts 315°
2026-04-25 06:30 42.16763 -127.19608 36047 ft 483 kts 315°
2026-04-25 06:31 42.21456 -127.26077 36069 ft 482 kts 315°
2026-04-25 06:31 42.26148 -127.32558 36067 ft 482 kts 315°
2026-04-25 06:32 42.30837 -127.39050 36062 ft 482 kts 315°
2026-04-25 06:32 42.35515 -127.45538 36065 ft 482 kts 315°
2026-04-25 06:33 42.40169 -127.52009 36062 ft 483 kts 315°
2026-04-25 06:33 42.44846 -127.58526 36081 ft 482 kts 315°
2026-04-25 06:34 42.49518 -127.65053 36065 ft 483 kts 315°
2026-04-25 06:34 42.54192 -127.71596 36065 ft 483 kts 315°
2026-04-25 06:35 42.58860 -127.78147 36070 ft 482 kts 315°
2026-04-25 06:35 42.63527 -127.84709 36081 ft 482 kts 315°
2026-04-25 06:36 42.68181 -127.91268 36080 ft 481 kts 315°
2026-04-25 06:36 42.72831 -127.97838 36084 ft 481 kts 315°
2026-04-25 06:37 42.77438 -128.04361 36097 ft 482 kts 315°
2026-04-25 06:37 42.82080 -128.10950 36100 ft 482 kts 315°
2026-04-25 06:38 42.86717 -128.17548 36087 ft 482 kts 315°
2026-04-25 06:38 42.91353 -128.24161 36104 ft 482 kts 315°
2026-04-25 06:39 42.95981 -128.30778 36106 ft 482 kts 315°
2026-04-25 06:39 43.00606 -128.37404 36093 ft 482 kts 315°
2026-04-25 06:40 43.05229 -128.44042 36091 ft 482 kts 315°
2026-04-25 06:40 43.09821 -128.50651 36113 ft 482 kts 315°
2026-04-25 06:41 43.14435 -128.57306 36118 ft 482 kts 315°
2026-04-25 06:41 43.19039 -128.63965 36113 ft 482 kts 315°
2026-04-25 06:42 43.23653 -128.70654 36117 ft 482 kts 315°
2026-04-25 06:42 43.28259 -128.77346 36118 ft 482 kts 315°
2026-04-25 06:43 43.32864 -128.84053 36123 ft 482 kts 315°
2026-04-25 06:43 43.37433 -128.90721 36125 ft 482 kts 315°
2026-04-25 06:44 43.42021 -128.97435 36125 ft 482 kts 314°
2026-04-25 06:44 43.46620 -129.04182 36124 ft 482 kts 314°
2026-04-25 06:45 43.51212 -129.10932 36129 ft 482 kts 314°
2026-04-25 06:45 43.55792 -129.17683 36136 ft 482 kts 314°
2026-04-25 06:46 43.59598 -129.23305 36135 ft 482 kts 314°
2026-04-25 06:46 43.64922 -129.31186 36137 ft 482 kts 314°
2026-04-25 06:47 43.68752 -129.36871 36141 ft 482 kts 314°
2026-04-25 06:47 43.73288 -129.43618 36144 ft 482 kts 314°
2026-04-25 06:48 43.77854 -129.50425 36146 ft 482 kts 314°
2026-04-25 06:48 43.82413 -129.57239 36145 ft 482 kts 314°
2026-04-25 06:49 43.86972 -129.64070 36146 ft 482 kts 314°
2026-04-25 06:49 43.91524 -129.70905 36151 ft 482 kts 314°
2026-04-25 06:50 43.96071 -129.77751 36155 ft 482 kts 314°
2026-04-25 06:50 44.00613 -129.84605 36154 ft 482 kts 314°
2026-04-25 06:51 44.05149 -129.91467 36154 ft 482 kts 314°
2026-04-25 06:51 44.09685 -129.98345 36163 ft 482 kts 314°
2026-04-25 06:52 44.14321 -130.05083 36165 ft 482 kts 316°
2026-04-25 06:52 44.19014 -130.11666 36162 ft 482 kts 316°
2026-04-25 06:53 44.23717 -130.18314 36168 ft 482 kts 316°
2026-04-25 06:53 44.28402 -130.25002 36169 ft 481 kts 315°
2026-04-25 06:54 44.33072 -130.31709 36175 ft 481 kts 315°
2026-04-25 06:54 44.37735 -130.38426 36180 ft 481 kts 315°
2026-04-25 06:55 44.42401 -130.45157 36180 ft 481 kts 315°
2026-04-25 06:55 44.47059 -130.51885 36187 ft 481 kts 315°
2026-04-25 06:56 44.51707 -130.58613 36193 ft 481 kts 315°
2026-04-25 06:56 44.56322 -130.65314 36195 ft 481 kts 315°
2026-04-25 06:57 44.60965 -130.72079 36195 ft 482 kts 315°
2026-04-25 06:57 44.65610 -130.78864 36193 ft 481 kts 315°
2026-04-25 06:58 44.70250 -130.85655 36197 ft 482 kts 315°
2026-04-25 06:58 44.74890 -130.92461 36203 ft 482 kts 315°
2026-04-25 06:59 44.79530 -130.99292 36200 ft 481 kts 315°
2026-04-25 06:59 44.84160 -131.06123 36208 ft 482 kts 315°
2026-04-25 07:00 44.88787 -131.12961 36211 ft 482 kts 315°
2026-04-25 07:00 44.93405 -131.19806 36218 ft 482 kts 315°
2026-04-25 07:01 44.98034 -131.26672 36216 ft 483 kts 315°
2026-04-25 07:01 45.02621 -131.33507 36220 ft 484 kts 315°
2026-04-25 07:02 45.07261 -131.40431 36226 ft 484 kts 315°
2026-04-25 07:02 45.11878 -131.47345 36227 ft 484 kts 314°
2026-04-25 07:03 45.16515 -131.54298 36226 ft 486 kts 314°
2026-04-25 07:03 45.21154 -131.61270 36232 ft 486 kts 314°
2026-04-25 07:04 45.25789 -131.68261 36234 ft 485 kts 314°
2026-04-25 07:04 45.30412 -131.75255 36237 ft 485 kts 314°
2026-04-25 07:05 45.35032 -131.82262 36237 ft 486 kts 314°
2026-04-25 07:05 45.39654 -131.89293 36236 ft 486 kts 314°
2026-04-25 07:06 45.44264 -131.96320 36237 ft 486 kts 314°
2026-04-25 07:06 45.48857 -132.03329 36248 ft 487 kts 314°
2026-04-25 07:07 45.53480 -132.10410 36247 ft 488 kts 314°
2026-04-25 07:07 45.58110 -132.17513 36248 ft 489 kts 313°
2026-04-25 07:08 45.62739 -132.24641 36254 ft 490 kts 313°
2026-04-25 07:08 45.67370 -132.31798 36259 ft 490 kts 313°
2026-04-25 07:09 45.71997 -132.38954 36255 ft 489 kts 314°
2026-04-25 07:09 45.76628 -132.46126 36262 ft 491 kts 313°
2026-04-25 07:10 45.81259 -132.53328 36266 ft 492 kts 313°
2026-04-25 07:10 45.85860 -132.60506 36271 ft 492 kts 313°
2026-04-25 07:11 45.90489 -132.67745 36269 ft 492 kts 313°
2026-04-25 07:11 45.95123 -132.75017 36273 ft 493 kts 313°
2026-04-25 07:12 45.99748 -132.82295 36276 ft 494 kts 313°
2026-04-25 07:12 46.06710 -132.93282 36285 ft 495 kts 313°
2026-04-25 07:13 46.11319 -133.00574 36287 ft 496 kts 313°
2026-04-25 07:13 46.15968 -133.07950 36284 ft 496 kts 313°
2026-04-25 07:14 46.20601 -133.15324 36287 ft 496 kts 312°
2026-04-25 07:14 46.25233 -133.22716 36293 ft 497 kts 312°
2026-04-25 07:15 46.29868 -133.30131 36301 ft 497 kts 312°
2026-04-25 07:15 46.34499 -133.37561 36301 ft 497 kts 312°
2026-04-25 07:16 46.39127 -133.45007 36301 ft 498 kts 312°
2026-04-25 07:16 46.43757 -133.52476 36306 ft 498 kts 312°
2026-04-25 07:17 46.48381 -133.59957 36311 ft 498 kts 312°
2026-04-25 07:17 46.52972 -133.67404 36312 ft 499 kts 311°
2026-04-25 07:18 46.57599 -133.74931 36316 ft 499 kts 311°
2026-04-25 07:18 46.62229 -133.82484 36319 ft 499 kts 311°
2026-04-25 07:19 46.66846 -133.90036 36326 ft 500 kts 311°
2026-04-25 07:19 46.71467 -133.97616 36324 ft 501 kts 311°
2026-04-25 07:20 46.76095 -134.05229 36329 ft 501 kts 311°
2026-04-25 07:20 46.80715 -134.12850 36333 ft 501 kts 311°
2026-04-25 07:21 46.85325 -134.20475 36338 ft 501 kts 311°
2026-04-25 07:21 46.89897 -134.28061 36339 ft 501 kts 311°
2026-04-25 07:22 46.94491 -134.35723 36336 ft 501 kts 311°
2026-04-25 07:22 46.99095 -134.43398 36342 ft 501 kts 311°
2026-04-25 07:23 47.03699 -134.51090 36341 ft 502 kts 311°
2026-04-25 07:23 47.08303 -134.58809 36344 ft 502 kts 311°
2026-04-25 07:24 47.12902 -134.66547 36349 ft 503 kts 311°
2026-04-25 07:24 47.17501 -134.74310 36355 ft 503 kts 310°
2026-04-25 07:25 47.22072 -134.82046 36353 ft 504 kts 310°
2026-04-25 07:25 47.26667 -134.89844 36357 ft 504 kts 310°
2026-04-25 07:26 47.31256 -134.97651 36366 ft 504 kts 310°
2026-04-25 07:26 47.35842 -135.05480 36366 ft 505 kts 310°
2026-04-25 07:27 47.40428 -135.13326 36366 ft 505 kts 310°
2026-04-25 07:27 47.45010 -135.21191 36376 ft 505 kts 310°
2026-04-25 07:28 47.49585 -135.29073 36375 ft 506 kts 310°
2026-04-25 07:28 47.54165 -135.36989 36372 ft 506 kts 310°
2026-04-25 07:29 47.58712 -135.44865 36379 ft 506 kts 309°
2026-04-25 07:29 47.63291 -135.52814 36384 ft 507 kts 309°
2026-04-25 07:30 47.67872 -135.60799 36391 ft 508 kts 309°
2026-04-25 07:30 47.72446 -135.68794 36385 ft 508 kts 309°
2026-04-25 07:31 47.77013 -135.76795 36401 ft 507 kts 309°
2026-04-25 07:31 47.81551 -135.84763 36395 ft 509 kts 309°
2026-04-25 07:32 47.86118 -135.92813 36399 ft 509 kts 309°
2026-04-25 07:32 47.90679 -136.00885 36397 ft 509 kts 309°
2026-04-25 07:33 47.95232 -136.08967 36405 ft 510 kts 309°
2026-04-25 07:33 47.99794 -136.17078 36409 ft 510 kts 308°
2026-04-25 07:34 48.04346 -136.25201 36411 ft 510 kts 309°
2026-04-25 07:34 48.08895 -136.33342 36419 ft 510 kts 309°
2026-04-25 07:35 48.13442 -136.41510 36416 ft 510 kts 308°
2026-04-25 07:35 48.17971 -136.49664 36420 ft 509 kts 309°
2026-04-25 07:36 48.22488 -136.57824 36419 ft 509 kts 308°
2026-04-25 07:36 48.26972 -136.65946 36425 ft 509 kts 308°
2026-04-25 07:37 48.31486 -136.74148 36425 ft 509 kts 308°
2026-04-25 07:37 48.35263 -136.81031 36425 ft 509 kts 308°
2026-04-25 07:38 48.39738 -136.89209 36427 ft 509 kts 308°
2026-04-25 07:38 48.44233 -136.97448 36433 ft 509 kts 308°
2026-04-25 07:39 48.48726 -137.05711 36430 ft 509 kts 308°
2026-04-25 07:39 48.53212 -137.13985 36430 ft 509 kts 308°
2026-04-25 07:40 48.57689 -137.22267 36435 ft 510 kts 308°
2026-04-25 07:40 48.62167 -137.30578 36431 ft 510 kts 308°
2026-04-25 07:41 48.66640 -137.38905 36438 ft 510 kts 308°
2026-04-25 07:41 48.71112 -137.47257 36439 ft 510 kts 308°
2026-04-25 07:42 48.75576 -137.55621 36452 ft 510 kts 308°
2026-04-25 07:42 48.80035 -137.63999 36449 ft 510 kts 307°
2026-04-25 07:43 48.84486 -137.72391 36434 ft 511 kts 307°
2026-04-25 07:43 48.88909 -137.80754 36451 ft 511 kts 307°
2026-04-25 07:44 48.93352 -137.89183 36443 ft 512 kts 307°
2026-04-25 07:44 48.97799 -137.97648 36448 ft 512 kts 307°
2026-04-25 07:45 49.02242 -138.06130 36463 ft 512 kts 307°
2026-04-25 07:45 49.06676 -138.14621 36452 ft 512 kts 307°
2026-04-25 07:46 49.11105 -138.23131 36454 ft 512 kts 307°
2026-04-25 07:46 49.15524 -138.31649 36452 ft 512 kts 307°
2026-04-25 07:47 49.19938 -138.40185 36469 ft 512 kts 307°
2026-04-25 07:47 49.24341 -138.48726 36456 ft 511 kts 307°
2026-04-25 07:48 49.28739 -138.57285 36457 ft 511 kts 307°
2026-04-25 07:48 49.33101 -138.65801 36457 ft 511 kts 307°
2026-04-25 07:49 49.37483 -138.74385 36459 ft 510 kts 307°
2026-04-25 07:49 49.41847 -138.82962 36453 ft 509 kts 307°
2026-04-25 07:50 49.46202 -138.91545 36459 ft 509 kts 307°
2026-04-25 07:50 49.50554 -139.00154 36458 ft 509 kts 307°
2026-04-25 07:51 49.54888 -139.08755 36455 ft 508 kts 307°
2026-04-25 07:51 49.59174 -139.17285 36455 ft 507 kts 307°
2026-04-25 07:52 49.63497 -139.25920 36454 ft 507 kts 307°
2026-04-25 07:52 49.67800 -139.34541 36454 ft 507 kts 307°
2026-04-25 07:53 49.72091 -139.43169 36449 ft 505 kts 307°
2026-04-25 07:53 49.76376 -139.51809 36447 ft 505 kts 306°
2026-04-25 07:54 49.80614 -139.60383 36447 ft 505 kts 306°
2026-04-25 07:54 49.84877 -139.69039 36443 ft 504 kts 306°
2026-04-25 07:55 49.89120 -139.77681 36444 ft 503 kts 306°
2026-04-25 07:55 49.93355 -139.86333 36443 ft 503 kts 306°
2026-04-25 07:56 49.97586 -139.95007 36441 ft 503 kts 306°
2026-04-25 07:56 50.01804 -140.03689 36440 ft 503 kts 306°
2026-04-25 07:57 50.05996 -140.12406 36440 ft 503 kts 306°
2026-04-25 07:57 50.10179 -140.21147 36441 ft 503 kts 306°
2026-04-25 07:58 50.14332 -140.29848 36443 ft 503 kts 306°
2026-04-25 07:58 50.18503 -140.38608 36438 ft 503 kts 306°
2026-04-25 07:59 50.22673 -140.47393 36438 ft 503 kts 306°
2026-04-25 07:59 50.26834 -140.56190 36436 ft 503 kts 305°
2026-04-25 08:00 50.30987 -140.64998 36440 ft 503 kts 305°
2026-04-25 08:00 50.35137 -140.73829 36436 ft 503 kts 305°
2026-04-25 08:01 50.39283 -140.82685 36433 ft 503 kts 305°
2026-04-25 08:01 50.43393 -140.91493 36427 ft 503 kts 305°
2026-04-25 08:02 50.47522 -141.00370 36426 ft 503 kts 304°
2026-04-25 08:02 50.51641 -141.09256 36425 ft 503 kts 304°
2026-04-25 08:03 50.55749 -141.18148 36422 ft 503 kts 304°
2026-04-25 08:03 50.59848 -141.27052 36419 ft 503 kts 304°
2026-04-25 08:04 50.63945 -141.35978 36419 ft 503 kts 304°
2026-04-25 08:04 50.68044 -141.44943 36413 ft 504 kts 304°
2026-04-25 08:05 50.72115 -141.53877 36409 ft 504 kts 304°
2026-04-25 08:05 50.76198 -141.62867 36408 ft 504 kts 303°
2026-04-25 08:06 50.80285 -141.71896 36406 ft 506 kts 303°
2026-04-25 08:06 50.84387 -141.80990 36400 ft 507 kts 303°
2026-04-25 08:07 50.88482 -141.90081 36400 ft 507 kts 303°
2026-04-25 08:07 50.92559 -141.99189 36417 ft 505 kts 303°
2026-04-25 08:08 50.96595 -142.08242 36399 ft 507 kts 303°
2026-04-25 08:08 51.00670 -142.17407 36398 ft 508 kts 303°
2026-04-25 08:09 51.04742 -142.26595 36389 ft 508 kts 303°
2026-04-25 08:09 51.08803 -142.35787 36397 ft 509 kts 302°
2026-04-25 08:10 51.12875 -142.45039 36386 ft 511 kts 302°
2026-04-25 08:10 51.16951 -142.54335 36383 ft 512 kts 302°
2026-04-25 08:11 51.21021 -142.63650 36381 ft 512 kts 302°
2026-04-25 08:11 51.25085 -142.72980 36377 ft 513 kts 301°
2026-04-25 08:12 51.29153 -142.82358 36386 ft 514 kts 301°
2026-04-25 08:12 51.33189 -142.91694 36379 ft 514 kts 301°
2026-04-25 08:13 51.37240 -143.01100 36367 ft 514 kts 301°
2026-04-25 08:14 51.43323 -143.15287 36367 ft 517 kts 301°
2026-04-25 08:14 51.47385 -143.24803 36361 ft 517 kts 301°
2026-04-25 08:15 51.51440 -143.34339 36356 ft 517 kts 301°
2026-04-25 08:15 51.55493 -143.43905 36356 ft 517 kts 301°
2026-04-25 08:16 51.59533 -143.53475 36353 ft 517 kts 301°
2026-04-25 08:16 51.63565 -143.63063 36350 ft 517 kts 300°
2026-04-25 08:17 51.67590 -143.72668 36352 ft 517 kts 300°
2026-04-25 08:17 51.71587 -143.82243 36351 ft 518 kts 300°
2026-04-25 08:18 51.75611 -143.91922 36347 ft 520 kts 300°
2026-04-25 08:18 51.79634 -144.01631 36342 ft 520 kts 300°
2026-04-25 08:19 51.83648 -144.11355 36333 ft 520 kts 300°
2026-04-25 08:19 51.87658 -144.21107 36341 ft 521 kts 299°
2026-04-25 08:20 51.91666 -144.30890 36326 ft 522 kts 299°
2026-04-25 08:20 51.95673 -144.40711 36326 ft 522 kts 299°
2026-04-25 08:21 51.99669 -144.50539 36330 ft 522 kts 299°
2026-04-25 08:21 52.03637 -144.60334 36320 ft 523 kts 299°
2026-04-25 08:22 52.07626 -144.70225 36317 ft 523 kts 299°
2026-04-25 08:22 52.11607 -144.80131 36317 ft 523 kts 298°
2026-04-25 08:23 52.15576 -144.90047 36310 ft 523 kts 298°
2026-04-25 08:23 52.19538 -144.99982 36306 ft 523 kts 298°
2026-04-25 08:24 52.23497 -145.09950 36305 ft 523 kts 298°
2026-04-25 08:24 52.27444 -145.19928 36306 ft 523 kts 298°
2026-04-25 08:25 52.31357 -145.29856 36331 ft 523 kts 298°
2026-04-25 08:25 52.35289 -145.39869 36306 ft 523 kts 298°
2026-04-25 08:26 52.39211 -145.49900 36303 ft 523 kts 298°
2026-04-25 08:26 52.43128 -145.59956 36303 ft 523 kts 298°
2026-04-25 08:27 52.47032 -145.70019 36318 ft 523 kts 297°
2026-04-25 08:27 52.50928 -145.80099 36301 ft 523 kts 297°
2026-04-25 08:28 52.54809 -145.90185 36302 ft 522 kts 297°
2026-04-25 08:28 52.58665 -146.00243 36301 ft 523 kts 297°
2026-04-25 08:29 52.62534 -146.10375 36314 ft 523 kts 297°
2026-04-25 08:29 52.65739 -146.18799 36300 ft 522 kts 297°
2026-04-25 08:30 52.69591 -146.28962 36303 ft 522 kts 297°
2026-04-25 08:30 52.73431 -146.39135 36301 ft 522 kts 296°
2026-04-25 08:31 52.77263 -146.49326 36305 ft 522 kts 296°
2026-04-25 08:31 52.81083 -146.59527 36296 ft 522 kts 296°
2026-04-25 08:32 52.84893 -146.69748 36308 ft 522 kts 296°
2026-04-25 08:32 52.88671 -146.79921 36290 ft 523 kts 296°
2026-04-25 08:33 52.92473 -146.90193 36313 ft 523 kts 296°
2026-04-25 08:33 52.96255 -147.00456 36296 ft 522 kts 296°
2026-04-25 08:34 53.00033 -147.10750 36292 ft 521 kts 296°
2026-04-25 08:34 53.03801 -147.21062 36289 ft 521 kts 296°
2026-04-25 08:35 53.07552 -147.31371 36290 ft 521 kts 296°
2026-04-25 08:35 53.11301 -147.41713 36288 ft 521 kts 296°
2026-04-25 08:36 53.15033 -147.52055 36292 ft 521 kts 296°
2026-04-25 08:36 53.18763 -147.62429 36288 ft 521 kts 296°
2026-04-25 08:37 53.22452 -147.72736 36294 ft 520 kts 296°
2026-04-25 08:37 53.26156 -147.83128 36287 ft 519 kts 296°
2026-04-25 08:38 53.29843 -147.93513 36285 ft 519 kts 296°
2026-04-25 08:38 53.33521 -148.03919 36283 ft 519 kts 295°
2026-04-25 08:39 53.37167 -148.14276 36284 ft 518 kts 296°
2026-04-25 08:39 53.40836 -148.24742 36278 ft 518 kts 296°
2026-04-25 08:40 53.44451 -148.35097 36273 ft 518 kts 295°
2026-04-25 08:40 53.48082 -148.45542 36276 ft 518 kts 295°
2026-04-25 08:41 53.51698 -148.55988 36281 ft 517 kts 295°
2026-04-25 08:41 53.55301 -148.66440 36275 ft 517 kts 295°
2026-04-25 08:42 53.58895 -148.76912 36273 ft 516 kts 295°
2026-04-25 08:42 53.62479 -148.87396 36264 ft 516 kts 295°
2026-04-25 08:43 53.66054 -148.97901 36268 ft 517 kts 295°
2026-04-25 08:43 53.69618 -149.08418 36260 ft 517 kts 295°
2026-04-25 08:44 53.73178 -149.18968 36259 ft 517 kts 295°
2026-04-25 08:44 53.76726 -149.29528 36260 ft 517 kts 295°
2026-04-25 08:45 53.80244 -149.40042 36256 ft 517 kts 295°
2026-04-25 08:45 53.83771 -149.50631 36252 ft 517 kts 295°
2026-04-25 08:46 53.87295 -149.61257 36250 ft 517 kts 295°
2026-04-25 08:46 53.90809 -149.71895 36248 ft 517 kts 295°
2026-04-25 08:47 53.94310 -149.82546 36247 ft 516 kts 295°
2026-04-25 08:47 53.97803 -149.93215 36244 ft 516 kts 294°
2026-04-25 08:48 54.01010 -150.04055 36245 ft 512 kts 289°
2026-04-25 08:48 54.03856 -150.15150 36235 ft 511 kts 288°
2026-04-25 08:49 54.06638 -150.26288 36234 ft 511 kts 288°
2026-04-25 08:49 54.09404 -150.37433 36226 ft 510 kts 288°
2026-04-25 08:50 54.12164 -150.48580 36223 ft 510 kts 288°
2026-04-25 08:50 54.14900 -150.59668 36229 ft 510 kts 288°
2026-04-25 08:51 54.17645 -150.70848 36256 ft 510 kts 288°
2026-04-25 08:51 54.20377 -150.82031 36221 ft 510 kts 288°
2026-04-25 08:52 54.23094 -150.93214 36222 ft 509 kts 288°
2026-04-25 08:52 54.25800 -151.04406 36222 ft 509 kts 288°
2026-04-25 08:53 54.28500 -151.15632 36222 ft 509 kts 288°
2026-04-25 08:53 54.31169 -151.26788 36213 ft 509 kts 288°
2026-04-25 08:54 54.33843 -151.38022 36208 ft 509 kts 288°
2026-04-25 08:54 54.36506 -151.49267 36208 ft 509 kts 288°
2026-04-25 08:55 54.39159 -151.60532 36208 ft 509 kts 288°
2026-04-25 08:55 54.41803 -151.71816 36205 ft 509 kts 288°
2026-04-25 08:56 54.44438 -151.83117 36200 ft 509 kts 287°
2026-04-25 08:56 54.47062 -151.94433 36199 ft 509 kts 287°
2026-04-25 08:57 54.49667 -152.05732 36201 ft 509 kts 287°
2026-04-25 08:57 54.52268 -152.17070 36190 ft 509 kts 287°
2026-04-25 08:58 54.54859 -152.28424 36207 ft 509 kts 287°
2026-04-25 08:58 54.57442 -152.39804 36190 ft 509 kts 287°
2026-04-25 08:59 54.60011 -152.51185 36189 ft 509 kts 287°
2026-04-25 08:59 54.62554 -152.62513 36205 ft 509 kts 287°
2026-04-25 09:00 54.65104 -152.73932 36181 ft 509 kts 287°
2026-04-25 09:00 54.67642 -152.85362 36181 ft 509 kts 287°
2026-04-25 09:01 54.70169 -152.96804 36176 ft 509 kts 287°
2026-04-25 09:01 54.72683 -153.08251 36173 ft 509 kts 287°
2026-04-25 09:02 54.75188 -153.19716 36161 ft 509 kts 287°
2026-04-25 09:02 54.77666 -153.31125 36156 ft 509 kts 287°
2026-04-25 09:03 54.80149 -153.42622 36157 ft 509 kts 287°
2026-04-25 09:03 54.82621 -153.54128 36148 ft 509 kts 287°
2026-04-25 09:04 54.85081 -153.65649 36147 ft 509 kts 287°
2026-04-25 09:04 54.87531 -153.77181 36140 ft 509 kts 287°
2026-04-25 09:05 54.89966 -153.88714 36141 ft 509 kts 286°
2026-04-25 09:05 54.92397 -154.00288 36127 ft 509 kts 286°
2026-04-25 09:06 54.94811 -154.11855 36134 ft 509 kts 286°
2026-04-25 09:06 54.97212 -154.23422 36116 ft 509 kts 286°
2026-04-25 09:07 54.99595 -154.34967 36110 ft 509 kts 286°
2026-04-25 09:07 55.01977 -154.46577 36105 ft 509 kts 286°
2026-04-25 09:08 55.04348 -154.58199 36096 ft 509 kts 286°
2026-04-25 09:08 55.06707 -154.69830 36077 ft 509 kts 286°
2026-04-25 09:09 55.09057 -154.81489 36075 ft 509 kts 286°
2026-04-25 09:09 55.11395 -154.93150 36064 ft 509 kts 286°
2026-04-25 09:10 55.13721 -155.04824 36065 ft 509 kts 285°
2026-04-25 09:10 55.16035 -155.16512 36063 ft 508 kts 286°
2026-04-25 09:11 55.19482 -155.34046 36048 ft 508 kts 285°
2026-04-25 09:11 55.21768 -155.45768 36048 ft 508 kts 285°
2026-04-25 09:12 55.24029 -155.57429 36040 ft 508 kts 285°
2026-04-25 09:12 55.26288 -155.69149 36040 ft 508 kts 285°
2026-04-25 09:13 55.28534 -155.80875 36028 ft 507 kts 285°
2026-04-25 09:13 55.30770 -155.92620 36010 ft 507 kts 285°
2026-04-25 09:14 55.32998 -156.04395 36010 ft 507 kts 285°
2026-04-25 09:14 55.35212 -156.16174 36002 ft 507 kts 285°
2026-04-25 09:15 55.37397 -156.27865 35998 ft 506 kts 285°
2026-04-25 09:15 55.39584 -156.39639 35988 ft 506 kts 285°
2026-04-25 09:16 55.41758 -156.51426 35988 ft 507 kts 285°
2026-04-25 09:16 55.43922 -156.63225 35977 ft 506 kts 284°
2026-04-25 09:17 55.47145 -156.80940 35968 ft 506 kts 284°
2026-04-25 09:18 55.49280 -156.92772 35968 ft 506 kts 284°
2026-04-25 09:18 55.51401 -157.04602 35968 ft 506 kts 284°
2026-04-25 09:19 55.53512 -157.16454 35970 ft 506 kts 285°
2026-04-25 09:19 55.55610 -157.28303 35959 ft 505 kts 284°
2026-04-25 09:20 55.57680 -157.40073 35954 ft 505 kts 284°
2026-04-25 09:20 55.59751 -157.51926 35952 ft 504 kts 284°
2026-04-25 09:21 55.61810 -157.63792 35943 ft 505 kts 284°
2026-04-25 09:21 55.63857 -157.75666 35940 ft 504 kts 284°
2026-04-25 09:22 55.65552 -157.85557 35945 ft 505 kts 284°
2026-04-25 09:22 55.67581 -157.97470 35939 ft 504 kts 284°
2026-04-25 09:23 55.69594 -158.09369 35938 ft 504 kts 284°
2026-04-25 09:23 55.71598 -158.21295 35943 ft 503 kts 284°
2026-04-25 09:24 55.73583 -158.33188 35932 ft 503 kts 284°
2026-04-25 09:24 55.75545 -158.45028 35927 ft 503 kts 284°
2026-04-25 09:25 55.77509 -158.56956 35929 ft 503 kts 284°
2026-04-25 09:25 55.79464 -158.68910 35937 ft 503 kts 284°
2026-04-25 09:26 55.81405 -158.80869 35939 ft 504 kts 284°
2026-04-25 09:26 55.83333 -158.92833 35940 ft 502 kts 284°
2026-04-25 09:27 55.85246 -159.04779 35944 ft 500 kts 284°
2026-04-25 09:27 55.87139 -159.16681 35945 ft 500 kts 284°
2026-04-25 09:28 55.89011 -159.28544 35952 ft 500 kts 284°
2026-04-25 09:28 55.90882 -159.40480 35925 ft 499 kts 284°
2026-04-25 09:29 55.92737 -159.52398 35913 ft 499 kts 283°
2026-04-25 09:29 55.94582 -159.64338 35914 ft 499 kts 283°
2026-04-25 09:30 55.96412 -159.76269 35901 ft 499 kts 283°
2026-04-25 09:30 55.98231 -159.88210 35902 ft 497 kts 283°
2026-04-25 09:31 56.00031 -160.00116 35900 ft 496 kts 283°
2026-04-25 09:31 56.01645 -160.12102 35898 ft 495 kts 281°
2026-04-25 09:32 56.03057 -160.24152 35898 ft 495 kts 280°
2026-04-25 09:32 56.04473 -160.36207 35903 ft 495 kts 281°
2026-04-25 09:33 56.05914 -160.48251 35894 ft 494 kts 281°
2026-04-25 09:33 56.07355 -160.60271 35895 ft 494 kts 281°
2026-04-25 09:34 56.08778 -160.72237 35907 ft 494 kts 281°
2026-04-25 09:34 56.10196 -160.84278 35919 ft 494 kts 280°
2026-04-25 09:35 56.11600 -160.96319 35929 ft 493 kts 280°
2026-04-25 09:35 56.12990 -161.08353 35935 ft 492 kts 280°
2026-04-25 09:36 56.14367 -161.20380 35933 ft 492 kts 280°
2026-04-25 09:36 56.15732 -161.32416 35892 ft 492 kts 280°
2026-04-25 09:37 56.17085 -161.44462 35911 ft 492 kts 280°
2026-04-25 09:37 56.18425 -161.56490 35894 ft 492 kts 280°
2026-04-25 09:38 56.19744 -161.68459 35905 ft 491 kts 279°
2026-04-25 09:38 56.21059 -161.80499 35905 ft 491 kts 279°
2026-04-25 09:39 56.22364 -161.92560 35913 ft 491 kts 279°
2026-04-25 09:39 56.23656 -162.04616 35911 ft 491 kts 279°
2026-04-25 09:40 56.25573 -162.22726 35916 ft 491 kts 279°
2026-04-25 09:40 56.26835 -162.34804 35916 ft 491 kts 279°
2026-04-25 09:41 56.28087 -162.46905 35916 ft 491 kts 279°
2026-04-25 09:41 56.29319 -162.58926 35921 ft 491 kts 279°
2026-04-25 09:42 56.30544 -162.71006 35922 ft 491 kts 279°
2026-04-25 09:42 56.31759 -162.83113 35925 ft 490 kts 279°
2026-04-25 09:43 56.32961 -162.95212 35928 ft 490 kts 278°
2026-04-25 09:43 56.34152 -163.07326 35927 ft 490 kts 278°
2026-04-25 09:44 56.35330 -163.19435 35930 ft 490 kts 278°
2026-04-25 09:44 56.36496 -163.31554 35933 ft 490 kts 278°
2026-04-25 09:45 56.37649 -163.43672 35933 ft 490 kts 278°
2026-04-25 09:45 56.38791 -163.55796 35936 ft 490 kts 278°
2026-04-25 09:46 56.39919 -163.67913 35935 ft 490 kts 278°
2026-04-25 09:46 56.41037 -163.80050 35938 ft 489 kts 278°
2026-04-25 09:47 56.42134 -163.92089 35940 ft 489 kts 278°
2026-04-25 09:47 56.43225 -164.04204 35943 ft 489 kts 278°
2026-04-25 09:48 56.44305 -164.16336 35940 ft 489 kts 277°
2026-04-25 09:48 56.45372 -164.28466 35948 ft 488 kts 277°
2026-04-25 09:49 56.46428 -164.40608 35943 ft 488 kts 277°
2026-04-25 09:49 56.47469 -164.52720 35941 ft 488 kts 277°
2026-04-25 09:50 56.48500 -164.64855 35941 ft 488 kts 277°
2026-04-25 09:50 56.49519 -164.76999 35943 ft 488 kts 277°
2026-04-25 09:51 56.50518 -164.89056 35942 ft 488 kts 277°
2026-04-25 09:51 56.51513 -165.01205 35941 ft 488 kts 277°
2026-04-25 09:52 56.52496 -165.13368 35940 ft 488 kts 277°
2026-04-25 09:52 56.53467 -165.25520 35945 ft 488 kts 276°
2026-04-25 09:53 56.54425 -165.37682 35949 ft 487 kts 276°
2026-04-25 09:53 56.55372 -165.49842 35937 ft 487 kts 276°
2026-04-25 09:54 56.56305 -165.61996 35933 ft 486 kts 276°
2026-04-25 09:54 56.57225 -165.74142 35934 ft 486 kts 276°
2026-04-25 09:55 56.58128 -165.86211 35933 ft 486 kts 276°
2026-04-25 09:55 56.59024 -165.98361 35939 ft 486 kts 276°
2026-04-25 09:56 56.59908 -166.10506 35930 ft 484 kts 276°
2026-04-25 09:56 56.60777 -166.22610 35940 ft 483 kts 276°
2026-04-25 09:57 56.61633 -166.34718 35943 ft 483 kts 276°
2026-04-25 09:57 56.62477 -166.46821 35927 ft 483 kts 276°
2026-04-25 09:58 56.63310 -166.58931 35930 ft 483 kts 275°
2026-04-25 09:58 56.64128 -166.71016 35924 ft 482 kts 275°
2026-04-25 09:59 56.64935 -166.83110 35925 ft 482 kts 275°
2026-04-25 09:59 56.65726 -166.95133 35923 ft 482 kts 275°
2026-04-25 10:00 56.66510 -167.07247 35923 ft 482 kts 275°
2026-04-25 10:00 56.67281 -167.19334 35926 ft 482 kts 275°
2026-04-25 10:01 56.68041 -167.31450 35919 ft 482 kts 275°
2026-04-25 10:01 56.68790 -167.43571 35912 ft 482 kts 275°
2026-04-25 10:02 56.69527 -167.55699 35912 ft 482 kts 275°
2026-04-25 10:02 56.70252 -167.67824 35907 ft 482 kts 274°
2026-04-25 10:03 56.70967 -167.79988 35912 ft 482 kts 274°
2026-04-25 10:03 56.71664 -167.92045 35906 ft 482 kts 274°
2026-04-25 10:04 56.72354 -168.04193 35906 ft 482 kts 274°
2026-04-25 10:04 56.73032 -168.16339 35904 ft 482 kts 274°
2026-04-25 10:05 56.73697 -168.28479 35912 ft 482 kts 274°
2026-04-25 10:05 56.74353 -168.40652 35899 ft 482 kts 274°
2026-04-25 10:06 56.74995 -168.52810 35894 ft 482 kts 274°
2026-04-25 10:06 56.75626 -168.64991 35895 ft 482 kts 274°
2026-04-25 10:07 56.76245 -168.77154 35896 ft 482 kts 274°
2026-04-25 10:07 56.76853 -168.89336 35898 ft 482 kts 273°
2026-04-25 10:08 56.77448 -169.01520 35886 ft 482 kts 273°
2026-04-25 10:08 56.78028 -169.13623 35885 ft 482 kts 273°
2026-04-25 10:09 56.78599 -169.25812 35864 ft 482 kts 273°
2026-04-25 10:09 56.79159 -169.38012 35865 ft 482 kts 273°
2026-04-25 10:10 56.79707 -169.50207 35859 ft 482 kts 273°
2026-04-25 10:10 56.80243 -169.62416 35856 ft 482 kts 272°
2026-04-25 10:11 56.80767 -169.74610 35851 ft 482 kts 272°
2026-04-25 10:11 56.81276 -169.86729 35853 ft 482 kts 272°
2026-04-25 10:12 56.81777 -169.98961 35869 ft 482 kts 272°
2026-04-25 10:13 56.82505 -170.17273 35858 ft 482 kts 272°
2026-04-25 10:13 56.82896 -170.27424 35864 ft 482 kts 272°
2026-04-25 10:14 56.83357 -170.39645 35863 ft 482 kts 272°
2026-04-25 10:14 56.83805 -170.51864 35852 ft 482 kts 272°
2026-04-25 10:15 56.84243 -170.64099 35858 ft 482 kts 271°
2026-04-25 10:15 56.84668 -170.76341 35857 ft 482 kts 271°
2026-04-25 10:16 56.85078 -170.88496 35847 ft 482 kts 271°
2026-04-25 10:16 56.85479 -171.00726 35848 ft 482 kts 271°
2026-04-25 10:17 56.85867 -171.12954 35843 ft 482 kts 271°
2026-04-25 10:17 56.86245 -171.25192 35845 ft 483 kts 271°
2026-04-25 10:18 56.86610 -171.37447 35842 ft 483 kts 271°
2026-04-25 10:18 56.86963 -171.49710 35842 ft 483 kts 271°
2026-04-25 10:19 56.87305 -171.61971 35840 ft 483 kts 271°
2026-04-25 10:19 56.87634 -171.74235 35840 ft 483 kts 271°
2026-04-25 10:20 56.87950 -171.86430 35832 ft 483 kts 270°
2026-04-25 10:20 56.88255 -171.98710 35831 ft 483 kts 270°
2026-04-25 10:21 56.88549 -172.10984 35829 ft 483 kts 270°
2026-04-25 10:21 56.88831 -172.23274 35829 ft 483 kts 270°
2026-04-25 10:22 56.89101 -172.35565 35826 ft 483 kts 270°
2026-04-25 10:22 56.89358 -172.47848 35828 ft 484 kts 270°
2026-04-25 10:23 56.89604 -172.60144 35826 ft 484 kts 270°
2026-04-25 10:23 56.89838 -172.72455 35799 ft 483 kts 270°
2026-04-25 10:24 56.90059 -172.84706 35821 ft 481 kts 269°
2026-04-25 10:24 56.90267 -172.96940 35835 ft 481 kts 269°
2026-04-25 10:25 56.90463 -173.09176 35823 ft 481 kts 269°
2026-04-25 10:25 56.90647 -173.21427 35820 ft 482 kts 269°
2026-04-25 10:26 56.90819 -173.33607 35823 ft 482 kts 269°
2026-04-25 10:26 56.90980 -173.45871 35822 ft 482 kts 269°
2026-04-25 10:27 56.91129 -173.58119 35820 ft 482 kts 269°
2026-04-25 10:27 56.91266 -173.70378 35820 ft 481 kts 269°
2026-04-25 10:28 56.91388 -173.82638 35818 ft 481 kts 269°
2026-04-25 10:28 56.90886 -173.94806 35824 ft 479 kts 262°
2026-04-25 10:29 56.90073 -174.06906 35825 ft 479 kts 261°
2026-04-25 10:29 56.89201 -174.18985 35825 ft 480 kts 261°
2026-04-25 10:30 56.88326 -174.31010 35821 ft 480 kts 261°
2026-04-25 10:30 56.87442 -174.43112 35823 ft 480 kts 261°
2026-04-25 10:31 56.86551 -174.55210 35821 ft 480 kts 260°
2026-04-25 10:31 56.85647 -174.67317 35821 ft 480 kts 260°
2026-04-25 10:32 56.84731 -174.79413 35825 ft 481 kts 260°
2026-04-25 10:32 56.83802 -174.91518 35820 ft 481 kts 260°
2026-04-25 10:33 56.82861 -175.03619 35822 ft 481 kts 260°
2026-04-25 10:33 56.81909 -175.15714 35820 ft 481 kts 260°
2026-04-25 10:34 56.80945 -175.27799 35820 ft 481 kts 260°
2026-04-25 10:34 56.79969 -175.39884 35822 ft 481 kts 259°
2026-04-25 10:35 56.78988 -175.51886 35820 ft 482 kts 259°
2026-04-25 10:35 56.77982 -175.64033 35821 ft 482 kts 259°
2026-04-25 10:36 56.76978 -175.76023 35799 ft 481 kts 259°
2026-04-25 10:36 56.75952 -175.88125 35821 ft 479 kts 259°
2026-04-25 10:37 56.74929 -176.00050 35821 ft 479 kts 259°
2026-04-25 10:37 56.73887 -176.12043 35820 ft 480 kts 259°
2026-04-25 10:38 56.72833 -176.24044 35821 ft 480 kts 259°
2026-04-25 10:38 56.71767 -176.36044 35818 ft 480 kts 258°
2026-04-25 10:39 56.70688 -176.48052 35816 ft 480 kts 258°
2026-04-25 10:39 56.69600 -176.60038 35822 ft 481 kts 258°
2026-04-25 10:40 56.68497 -176.72042 35822 ft 481 kts 258°
2026-04-25 10:40 56.67382 -176.84045 35820 ft 481 kts 258°
2026-04-25 10:41 56.66256 -176.96038 35813 ft 481 kts 258°
2026-04-25 10:41 56.65125 -177.07951 35815 ft 481 kts 258°
2026-04-25 10:42 56.63975 -177.19940 35813 ft 482 kts 258°
2026-04-25 10:42 56.62810 -177.31959 35809 ft 483 kts 258°
2026-04-25 10:43 56.61634 -177.43959 35813 ft 483 kts 258°
2026-04-25 10:43 56.60446 -177.55963 35810 ft 483 kts 257°
2026-04-25 10:44 56.59247 -177.67949 35810 ft 483 kts 257°
2026-04-25 10:44 56.58035 -177.79939 35807 ft 484 kts 257°
2026-04-25 10:45 56.56809 -177.91952 35805 ft 484 kts 257°
2026-04-25 10:45 56.55579 -178.03883 35805 ft 484 kts 257°
2026-04-25 10:46 56.54331 -178.15872 35814 ft 484 kts 257°
2026-04-25 10:46 56.53069 -178.27866 35830 ft 485 kts 257°
2026-04-25 10:47 56.51794 -178.39870 35802 ft 486 kts 257°
2026-04-25 10:47 56.50507 -178.51876 35808 ft 486 kts 257°
2026-04-25 10:48 56.49205 -178.63900 35809 ft 486 kts 257°
2026-04-25 10:48 56.47893 -178.75903 35802 ft 486 kts 256°
2026-04-25 10:49 56.46569 -178.87906 35814 ft 487 kts 256°
2026-04-25 10:49 56.45232 -178.99903 35804 ft 487 kts 256°
2026-04-25 10:50 56.43882 -179.11915 35803 ft 487 kts 256°
2026-04-25 10:50 56.42530 -179.23827 35805 ft 487 kts 256°
2026-04-25 10:51 56.41148 -179.35890 35803 ft 487 kts 256°
2026-04-25 10:51 56.39764 -179.47865 35801 ft 487 kts 256°
2026-04-25 10:52 56.38369 -179.59832 35798 ft 487 kts 256°
2026-04-25 10:52 56.36970 -179.71718 35800 ft 487 kts 256°
2026-04-25 10:53 56.35550 -179.83679 35802 ft 487 kts 256°
2026-04-25 10:53 56.34120 -179.95616 35802 ft 487 kts 256°
2026-04-25 10:54 56.32677 179.92442 35805 ft 489 kts 255°
2026-04-25 10:54 56.31226 179.80539 35796 ft 489 kts 255°
2026-04-25 10:55 56.29758 179.68585 35800 ft 487 kts 255°
2026-04-25 10:55 56.28281 179.56670 35799 ft 487 kts 255°
2026-04-25 10:56 56.26794 179.44785 35793 ft 487 kts 255°
2026-04-25 10:56 56.25297 179.32915 35796 ft 487 kts 255°
2026-04-25 10:57 56.23785 179.21025 35801 ft 487 kts 255°
2026-04-25 10:57 56.22263 179.09151 35800 ft 487 kts 255°
2026-04-25 10:58 56.20729 178.97287 35793 ft 487 kts 255°
2026-04-25 10:58 56.19185 178.85437 35815 ft 487 kts 255°
2026-04-25 10:59 56.17626 178.73575 35790 ft 489 kts 254°
2026-04-25 10:59 56.16052 178.61693 35788 ft 490 kts 254°
2026-04-25 11:00 56.14476 178.49886 35789 ft 489 kts 254°
2026-04-25 11:00 56.12878 178.38014 35789 ft 489 kts 254°
2026-04-25 11:01 56.11268 178.26143 35799 ft 490 kts 254°
2026-04-25 11:01 56.09922 178.16295 35790 ft 491 kts 254°
2026-04-25 11:02 56.07613 178.02723 35789 ft 489 kts 247°
2026-04-25 11:02 56.05069 177.91446 35789 ft 489 kts 246°
2026-04-25 11:03 56.02874 177.82071 35790 ft 488 kts 245°
2026-04-25 11:03 56.00240 177.70900 35799 ft 486 kts 245°
2026-04-25 11:04 55.97609 177.59752 35788 ft 486 kts 245°
2026-04-25 11:04 55.94996 177.48706 35787 ft 487 kts 245°
2026-04-25 11:05 55.92353 177.37584 35786 ft 487 kts 245°
2026-04-25 11:05 55.89701 177.26485 35785 ft 487 kts 245°
2026-04-25 11:06 55.87037 177.15392 35803 ft 487 kts 245°
2026-04-25 11:06 55.84355 177.04282 35781 ft 489 kts 245°
2026-04-25 11:07 55.81677 176.93245 35782 ft 489 kts 245°
2026-04-25 11:07 55.78970 176.82144 35781 ft 489 kts 245°
2026-04-25 11:08 55.76254 176.71066 35782 ft 489 kts 245°
2026-04-25 11:08 55.73527 176.59995 35773 ft 489 kts 245°
2026-04-25 11:09 55.70794 176.48957 35775 ft 488 kts 244°
2026-04-25 11:09 55.68047 176.37916 35777 ft 488 kts 244°
2026-04-25 11:10 55.65300 176.26935 35773 ft 488 kts 244°
2026-04-25 11:10 55.62562 176.16040 35770 ft 488 kts 244°
2026-04-25 11:11 55.59790 176.05064 35778 ft 489 kts 244°
2026-04-25 11:11 55.56999 175.94071 35768 ft 490 kts 244°
2026-04-25 11:12 55.54198 175.83087 35768 ft 490 kts 244°
2026-04-25 11:12 55.51388 175.72124 35769 ft 490 kts 244°
2026-04-25 11:13 55.48568 175.61178 35765 ft 490 kts 244°
2026-04-25 11:13 55.45734 175.50232 35768 ft 491 kts 244°
2026-04-25 11:14 55.42885 175.39279 35756 ft 491 kts 244°
2026-04-25 11:14 55.40054 175.28445 35763 ft 490 kts 244°
2026-04-25 11:15 55.37198 175.17573 35759 ft 490 kts 243°
2026-04-25 11:15 55.34331 175.06712 35755 ft 489 kts 243°
2026-04-25 11:16 55.30011 174.90442 35755 ft 490 kts 243°
2026-04-25 11:16 55.27119 174.79615 35754 ft 490 kts 243°
2026-04-25 11:17 55.24241 174.68890 35752 ft 490 kts 243°
2026-04-25 11:17 55.21332 174.58100 35752 ft 490 kts 243°
2026-04-25 11:18 55.18412 174.47324 35754 ft 490 kts 243°
2026-04-25 11:18 55.15478 174.36545 35747 ft 491 kts 243°
2026-04-25 11:19 55.12530 174.25765 35729 ft 491 kts 243°
2026-04-25 11:19 55.09578 174.15020 35742 ft 489 kts 243°
2026-04-25 11:20 55.06629 174.04335 35739 ft 489 kts 243°
2026-04-25 11:20 55.03668 173.93663 35743 ft 490 kts 243°
2026-04-25 11:21 55.00689 173.82972 35732 ft 491 kts 242°
2026-04-25 11:21 54.97694 173.72272 35732 ft 492 kts 242°
2026-04-25 11:22 54.95196 173.63386 35723 ft 492 kts 242°
2026-04-25 11:22 54.91687 173.50959 35725 ft 492 kts 242°
2026-04-25 11:23 54.88664 173.40307 35723 ft 493 kts 242°
2026-04-25 11:23 54.85615 173.29616 35718 ft 494 kts 242°
2026-04-25 11:24 54.82576 173.19005 35713 ft 494 kts 242°
2026-04-25 11:24 54.79517 173.08371 35712 ft 492 kts 242°
2026-04-25 11:25 54.76455 172.97776 35711 ft 491 kts 242°
2026-04-25 11:25 54.73383 172.87198 35709 ft 492 kts 242°
2026-04-25 11:26 54.70301 172.76629 35701 ft 492 kts 242°
2026-04-25 11:26 54.67210 172.66079 35702 ft 492 kts 242°
2026-04-25 11:27 54.64108 172.55536 35698 ft 492 kts 242°
2026-04-25 11:27 54.61527 172.46803 35697 ft 492 kts 242°
2026-04-25 11:28 54.57871 172.34486 35692 ft 494 kts 241°
2026-04-25 11:28 54.54746 172.24009 35705 ft 495 kts 241°
2026-04-25 11:29 54.51591 172.13475 35692 ft 495 kts 241°
2026-04-25 11:29 54.48427 172.02962 35693 ft 494 kts 241°
2026-04-25 11:30 54.45258 171.92476 35687 ft 493 kts 241°
2026-04-25 11:30 54.42078 171.82003 35687 ft 495 kts 241°
2026-04-25 11:31 54.38881 171.71519 35682 ft 496 kts 241°
2026-04-25 11:31 54.35677 171.61056 35682 ft 496 kts 241°
2026-04-25 11:32 54.32482 171.50668 35678 ft 496 kts 241°
2026-04-25 11:32 54.29257 171.40231 35686 ft 497 kts 241°
2026-04-25 11:33 54.26007 171.29756 35682 ft 499 kts 241°
2026-04-25 11:33 54.22742 171.19280 35678 ft 499 kts 240°
2026-04-25 11:34 54.19471 171.08827 35677 ft 499 kts 240°
2026-04-25 11:34 54.16193 170.98400 35682 ft 499 kts 240°
2026-04-25 11:35 54.12900 170.87974 35680 ft 498 kts 240°
2026-04-25 11:35 54.09626 170.77646 35681 ft 498 kts 240°
2026-04-25 11:36 54.06322 170.67270 35682 ft 498 kts 240°
2026-04-25 11:36 54.03011 170.56919 35679 ft 498 kts 240°
2026-04-25 11:37 53.99686 170.46568 35685 ft 499 kts 240°
2026-04-25 11:37 53.96346 170.36215 35680 ft 500 kts 240°
2026-04-25 11:38 53.92989 170.25849 35677 ft 500 kts 240°
2026-04-25 11:38 53.89626 170.15512 35677 ft 500 kts 240°
2026-04-25 11:39 53.86257 170.05201 35681 ft 500 kts 240°
2026-04-25 11:39 53.82876 169.94897 35680 ft 500 kts 240°
2026-04-25 11:40 53.79516 169.84698 35683 ft 499 kts 240°
2026-04-25 11:40 53.76133 169.74474 35683 ft 498 kts 240°
2026-04-25 11:41 53.72745 169.64274 35680 ft 498 kts 240°
2026-04-25 11:41 53.69342 169.54076 35694 ft 498 kts 240°
2026-04-25 11:42 53.65929 169.43889 35681 ft 500 kts 240°
2026-04-25 11:42 53.62498 169.33692 35683 ft 500 kts 239°
2026-04-25 11:43 53.59154 169.23408 35683 ft 500 kts 241°
2026-04-25 11:43 53.55884 169.13056 35689 ft 500 kts 241°
2026-04-25 11:44 53.52599 169.02740 35687 ft 501 kts 241°
2026-04-25 11:44 53.49304 168.92509 35690 ft 502 kts 241°
2026-04-25 11:45 53.45963 168.82206 35691 ft 502 kts 241°
2026-04-25 11:45 53.42614 168.71923 35693 ft 502 kts 240°
2026-04-25 11:46 53.39260 168.61666 35693 ft 502 kts 240°
2026-04-25 11:46 53.35891 168.51407 35695 ft 503 kts 240°
2026-04-25 11:47 53.32513 168.41162 35703 ft 503 kts 240°
2026-04-25 11:47 53.29119 168.30918 35700 ft 503 kts 240°
2026-04-25 11:48 53.25708 168.20696 35705 ft 503 kts 240°
2026-04-25 11:48 53.22297 168.10503 35706 ft 501 kts 240°
2026-04-25 11:49 53.18887 168.00352 35706 ft 503 kts 240°
2026-04-25 11:49 53.15450 167.90186 35703 ft 504 kts 240°
2026-04-25 11:50 53.11999 167.80019 35703 ft 504 kts 240°
2026-04-25 11:50 53.08568 167.69944 35717 ft 503 kts 240°
2026-04-25 11:51 53.05109 167.59830 35712 ft 504 kts 240°
2026-04-25 11:51 53.01637 167.49714 35717 ft 504 kts 240°
2026-04-25 11:52 52.98159 167.39624 35715 ft 504 kts 240°
2026-04-25 11:52 52.94672 167.29550 35717 ft 503 kts 240°
2026-04-25 11:53 52.91175 167.19488 35718 ft 504 kts 240°
2026-04-25 11:53 52.88255 167.11126 35723 ft 505 kts 240°
2026-04-25 11:54 52.84173 166.99487 35721 ft 501 kts 240°
2026-04-25 11:55 52.79503 166.86194 35725 ft 501 kts 240°
2026-04-25 11:55 52.75967 166.76220 35730 ft 502 kts 240°
2026-04-25 11:56 52.72452 166.66316 35728 ft 498 kts 240°
2026-04-25 11:56 52.68952 166.56491 35733 ft 501 kts 240°
2026-04-25 11:57 52.65426 166.46629 35734 ft 500 kts 240°
2026-04-25 11:57 52.61872 166.36733 35738 ft 503 kts 240°
2026-04-25 11:58 52.58298 166.26835 35745 ft 501 kts 240°
2026-04-25 11:58 52.54727 166.16961 35752 ft 505 kts 240°
2026-04-25 11:59 52.51143 166.07100 35741 ft 500 kts 240°
2026-04-25 11:59 52.47585 165.97345 35743 ft 498 kts 240°
2026-04-25 12:00 52.42236 165.82760 35751 ft 498 kts 240°
2026-04-25 12:01 52.36882 165.68237 35757 ft 498 kts 240°
2026-04-25 12:01 52.33297 165.58578 35764 ft 496 kts 240°
2026-04-25 12:02 52.27890 165.44043 35759 ft 498 kts 240°
2026-04-25 12:02 52.24287 165.34453 35772 ft 497 kts 239°
2026-04-25 12:03 52.20663 165.24792 35759 ft 500 kts 239°
2026-04-25 12:03 52.17024 165.15121 35771 ft 503 kts 240°
2026-04-25 12:04 52.13373 165.05464 35759 ft 496 kts 239°
2026-04-25 12:04 52.09751 164.95932 35768 ft 498 kts 239°
2026-04-25 12:05 52.06106 164.86410 35776 ft 499 kts 239°
2026-04-25 12:05 52.02428 164.76765 35776 ft 505 kts 240°
2026-04-25 12:06 51.98734 164.67142 35769 ft 498 kts 239°
2026-04-25 12:06 51.95047 164.57591 35783 ft 501 kts 239°
2026-04-25 12:07 51.91358 164.48053 35777 ft 503 kts 239°
2026-04-25 12:07 51.87610 164.38402 35785 ft 504 kts 239°
2026-04-25 12:08 51.83894 164.28867 35783 ft 505 kts 239°
2026-04-25 12:08 51.80149 164.19288 35780 ft 502 kts 239°
2026-04-25 12:09 51.76410 164.09781 35787 ft 502 kts 239°
2026-04-25 12:09 51.72666 164.00306 35792 ft 501 kts 239°
2026-04-25 12:10 51.68915 163.90832 35794 ft 502 kts 239°
2026-04-25 12:10 51.65138 163.81296 35789 ft 504 kts 239°
2026-04-25 12:11 51.61356 163.71825 35798 ft 503 kts 239°
2026-04-25 12:11 51.57593 163.62415 35794 ft 501 kts 239°
2026-04-25 12:12 51.54451 163.54591 35799 ft 500 kts 239°
2026-04-25 12:12 51.50035 163.43632 35795 ft 500 kts 239°
2026-04-25 12:13 51.46232 163.34231 35803 ft 502 kts 239°
2026-04-25 12:13 51.42417 163.24836 35803 ft 503 kts 239°
2026-04-25 12:14 51.38592 163.15450 35812 ft 503 kts 238°
2026-04-25 12:14 51.34758 163.06074 35809 ft 504 kts 238°
2026-04-25 12:15 51.30936 162.96762 35806 ft 504 kts 238°
2026-04-25 12:15 51.27084 162.87411 35818 ft 504 kts 238°
2026-04-25 12:16 51.23223 162.78071 35807 ft 503 kts 238°
2026-04-25 12:16 51.19363 162.68769 35807 ft 503 kts 238°
2026-04-25 12:17 51.15496 162.59483 35817 ft 503 kts 238°
2026-04-25 12:17 51.11620 162.50205 35815 ft 503 kts 238°
2026-04-25 12:18 51.07736 162.40944 35821 ft 503 kts 238°
2026-04-25 12:18 51.03872 162.31763 35826 ft 503 kts 238°
2026-04-25 12:19 50.98023 162.17928 35824 ft 503 kts 238°
2026-04-25 12:20 50.94114 162.08720 35825 ft 503 kts 238°
2026-04-25 12:20 50.90194 161.99521 35829 ft 503 kts 238°
2026-04-25 12:21 50.86272 161.90350 35823 ft 503 kts 238°
2026-04-25 12:21 50.82346 161.81201 35831 ft 502 kts 238°
2026-04-25 12:22 50.78413 161.72066 35832 ft 502 kts 238°
2026-04-25 12:22 50.74479 161.62963 35836 ft 502 kts 238°
2026-04-25 12:23 50.70539 161.53875 35840 ft 502 kts 238°
2026-04-25 12:23 50.66613 161.44853 35840 ft 502 kts 238°
2026-04-25 12:24 50.62650 161.35778 35838 ft 502 kts 238°
2026-04-25 12:24 50.58682 161.26722 35840 ft 502 kts 238°
2026-04-25 12:25 50.54711 161.17688 35845 ft 502 kts 238°
2026-04-25 12:25 50.50726 161.08658 35840 ft 502 kts 238°
2026-04-25 12:26 50.46736 160.99646 35843 ft 502 kts 238°
2026-04-25 12:26 50.42751 160.90675 35851 ft 501 kts 238°
2026-04-25 12:27 50.38778 160.81761 35848 ft 501 kts 238°
2026-04-25 12:27 50.34777 160.72816 35840 ft 501 kts 238°
2026-04-25 12:28 50.30770 160.63886 35854 ft 502 kts 238°
2026-04-25 12:28 50.26750 160.54958 35854 ft 502 kts 237°
2026-04-25 12:29 50.22725 160.46050 35857 ft 502 kts 237°
2026-04-25 12:29 50.18689 160.37148 35848 ft 502 kts 237°
2026-04-25 12:30 50.14634 160.28271 35862 ft 502 kts 237°
2026-04-25 12:30 50.10564 160.19407 35862 ft 502 kts 237°
2026-04-25 12:31 50.06497 160.10575 35861 ft 502 kts 237°
2026-04-25 12:31 50.02445 160.01802 35865 ft 502 kts 237°
2026-04-25 12:32 49.98366 159.92996 35865 ft 502 kts 237°
2026-04-25 12:32 49.94276 159.84197 35865 ft 502 kts 237°
2026-04-25 12:33 49.90188 159.75431 35871 ft 502 kts 237°
2026-04-25 12:33 49.86085 159.66663 35870 ft 502 kts 237°
2026-04-25 12:34 49.82005 159.57973 35875 ft 502 kts 237°
2026-04-25 12:34 49.77892 159.49241 35881 ft 502 kts 237°
2026-04-25 12:35 49.73771 159.40520 35879 ft 502 kts 237°
2026-04-25 12:35 49.69633 159.31812 35884 ft 502 kts 236°
2026-04-25 12:36 49.65426 159.23206 35889 ft 502 kts 236°
2026-04-25 12:36 49.61188 159.14620 35893 ft 502 kts 236°
2026-04-25 12:37 49.56956 159.06051 35902 ft 502 kts 236°
2026-04-25 12:37 49.52726 158.97496 35901 ft 502 kts 236°
2026-04-25 12:38 49.48516 158.89004 35899 ft 502 kts 236°
2026-04-25 12:38 49.44283 158.80490 35904 ft 502 kts 236°
2026-04-25 12:39 49.40039 158.71982 35907 ft 502 kts 236°
2026-04-25 12:39 49.35789 158.63492 35915 ft 502 kts 236°
2026-04-25 12:40 49.31536 158.55025 35910 ft 500 kts 236°
2026-04-25 12:40 49.27289 158.46595 35922 ft 499 kts 236°
2026-04-25 12:41 49.23045 158.38195 35930 ft 499 kts 236°
2026-04-25 12:41 49.18793 158.29805 35930 ft 499 kts 236°
2026-04-25 12:42 49.14532 158.21426 35929 ft 498 kts 236°
2026-04-25 12:42 49.10274 158.13079 35938 ft 498 kts 236°
2026-04-25 12:43 49.06010 158.04746 35944 ft 498 kts 236°
2026-04-25 12:43 48.99627 157.92321 35953 ft 498 kts 236°
2026-04-25 12:44 48.95349 157.84025 35960 ft 498 kts 236°
2026-04-25 12:45 48.88928 157.71623 35957 ft 497 kts 236°
2026-04-25 12:45 48.83190 157.60588 35962 ft 497 kts 235°
2026-04-25 12:46 48.78907 157.52382 35966 ft 496 kts 236°
2026-04-25 12:46 48.74649 157.44248 35974 ft 495 kts 236°
2026-04-25 12:47 48.70356 157.36071 35974 ft 495 kts 236°
2026-04-25 12:47 48.66060 157.27913 35976 ft 495 kts 236°
2026-04-25 12:48 48.61761 157.19777 35983 ft 494 kts 236°
2026-04-25 12:48 48.57469 157.11677 35984 ft 494 kts 236°
2026-04-25 12:49 48.53169 157.03587 35986 ft 494 kts 236°
2026-04-25 12:49 48.48869 156.95521 35986 ft 493 kts 236°
2026-04-25 12:50 48.44568 156.87477 36002 ft 492 kts 236°
2026-04-25 12:50 48.40265 156.79453 36004 ft 492 kts 236°
2026-04-25 12:51 48.35961 156.71450 36007 ft 492 kts 236°
2026-04-25 12:51 48.31680 156.63513 36016 ft 492 kts 236°
2026-04-25 12:52 48.27367 156.55543 36015 ft 491 kts 236°
2026-04-25 12:52 48.23061 156.47609 36016 ft 490 kts 236°
2026-04-25 12:53 48.18748 156.39685 36024 ft 490 kts 236°
2026-04-25 12:53 48.14432 156.31778 36023 ft 490 kts 236°
2026-04-25 12:54 48.10117 156.23900 36029 ft 488 kts 236°
2026-04-25 12:54 48.05807 156.16051 36037 ft 488 kts 236°
2026-04-25 12:55 48.02223 156.09540 36036 ft 488 kts 236°
2026-04-25 12:55 47.97177 156.00401 36045 ft 488 kts 236°
2026-04-25 12:56 47.92858 155.92605 36042 ft 487 kts 236°
2026-04-25 12:56 47.88564 155.84876 36045 ft 487 kts 236°
2026-04-25 12:57 47.84243 155.77118 36053 ft 487 kts 236°
2026-04-25 12:57 47.79909 155.69361 36056 ft 487 kts 236°
2026-04-25 12:58 47.75588 155.61653 36057 ft 485 kts 236°
2026-04-25 12:58 47.71266 155.53961 36067 ft 484 kts 236°
2026-04-25 12:59 47.66948 155.46296 36067 ft 484 kts 236°
2026-04-25 12:59 47.62654 155.38695 36072 ft 484 kts 236°
2026-04-25 13:00 47.59033 155.32307 36072 ft 482 kts 236°
2026-04-25 13:00 47.54017 155.23477 36088 ft 482 kts 236°
2026-04-25 13:01 47.49690 155.15884 36096 ft 482 kts 236°
2026-04-25 13:01 47.45362 155.08311 36076 ft 482 kts 236°
2026-04-25 13:02 47.41037 155.00765 36088 ft 481 kts 236°
2026-04-25 13:02 47.36714 154.93243 36094 ft 480 kts 236°
2026-04-25 13:03 47.32393 154.85744 36094 ft 480 kts 236°
2026-04-25 13:03 47.28082 154.78284 36102 ft 480 kts 236°
2026-04-25 13:04 47.23750 154.70808 36105 ft 480 kts 236°
2026-04-25 13:04 47.19413 154.63343 36105 ft 480 kts 236°
2026-04-25 13:05 47.15066 154.55882 36108 ft 480 kts 236°
2026-04-25 13:05 47.10711 154.48429 36087 ft 480 kts 236°
2026-04-25 13:06 47.06366 154.41014 36113 ft 479 kts 236°
2026-04-25 13:06 47.02015 154.33609 36119 ft 479 kts 236°
2026-04-25 13:07 46.97673 154.26237 36121 ft 478 kts 235°
2026-04-25 13:07 46.93326 154.18878 36105 ft 477 kts 235°
2026-04-25 13:08 46.89019 154.11606 36134 ft 475 kts 235°
2026-04-25 13:08 46.84685 154.04308 36134 ft 475 kts 235°
2026-04-25 13:09 46.80343 153.97015 36138 ft 475 kts 235°
2026-04-25 13:09 46.76001 153.89742 36116 ft 475 kts 235°
2026-04-25 13:10 46.71659 153.82490 36143 ft 474 kts 235°
2026-04-25 13:10 46.67322 153.75264 36152 ft 474 kts 234°
2026-04-25 13:11 46.62981 153.68050 36147 ft 474 kts 234°
2026-04-25 13:11 46.58633 153.60845 36140 ft 473 kts 234°
2026-04-25 13:12 46.54297 153.53677 36161 ft 472 kts 234°
2026-04-25 13:12 46.50683 153.47718 36162 ft 472 kts 234°
2026-04-25 13:13 46.45601 153.39360 36161 ft 472 kts 234°
2026-04-25 13:13 46.41276 153.32266 36158 ft 472 kts 234°
2026-04-25 13:14 46.36918 153.25137 36165 ft 472 kts 234°
2026-04-25 13:14 46.32555 153.18021 36167 ft 472 kts 234°
2026-04-25 13:15 46.28190 153.10920 36170 ft 472 kts 234°
2026-04-25 13:15 46.23822 153.03832 36176 ft 472 kts 234°
2026-04-25 13:16 46.19444 152.96756 36185 ft 472 kts 233°
2026-04-25 13:16 46.15039 152.89728 36181 ft 472 kts 233°
2026-04-25 13:17 46.10618 152.82707 36187 ft 472 kts 233°
2026-04-25 13:17 46.06228 152.75742 36180 ft 472 kts 233°
2026-04-25 13:18 46.01813 152.68750 36190 ft 472 kts 233°
2026-04-25 13:18 45.97393 152.61766 36188 ft 472 kts 233°
2026-04-25 13:19 45.92965 152.54787 36194 ft 472 kts 233°
2026-04-25 13:19 45.90004 152.50131 36190 ft 472 kts 233°
2026-04-25 13:20 45.84116 152.40896 36198 ft 471 kts 233°
2026-04-25 13:20 45.79686 152.33966 36200 ft 471 kts 233°
2026-04-25 13:21 45.75254 152.27052 36200 ft 471 kts 233°
2026-04-25 13:21 45.70851 152.20202 36202 ft 470 kts 233°
2026-04-25 13:22 45.66422 152.13328 36202 ft 470 kts 233°
2026-04-25 13:23 45.59771 152.03034 36205 ft 470 kts 233°
2026-04-25 13:23 45.55338 151.96196 36205 ft 470 kts 233°
2026-04-25 13:24 45.50895 151.89360 36211 ft 470 kts 233°
2026-04-25 13:24 45.46451 151.82540 36212 ft 469 kts 233°
2026-04-25 13:25 45.42001 151.75726 36211 ft 469 kts 233°
2026-04-25 13:25 45.37583 151.68980 36215 ft 468 kts 233°
2026-04-25 13:26 45.33135 151.62205 36220 ft 468 kts 233°
2026-04-25 13:26 45.28692 151.55452 36219 ft 468 kts 233°
2026-04-25 13:27 45.24248 151.48714 36211 ft 468 kts 233°
2026-04-25 13:27 45.19792 151.41976 36223 ft 468 kts 233°
2026-04-25 13:28 45.15342 151.35263 36225 ft 468 kts 233°
2026-04-25 13:28 45.10881 151.28550 36239 ft 467 kts 233°
2026-04-25 13:29 45.06423 151.21859 36224 ft 467 kts 233°
2026-04-25 13:29 45.01959 151.15173 36229 ft 467 kts 233°
2026-04-25 13:30 44.95287 151.05210 36232 ft 468 kts 233°
2026-04-25 13:31 44.88566 150.95214 36230 ft 468 kts 233°
2026-04-25 13:31 44.84083 150.88566 36241 ft 468 kts 233°
2026-04-25 13:32 44.79602 150.81935 36238 ft 468 kts 233°
2026-04-25 13:32 44.75112 150.75307 36230 ft 467 kts 233°
2026-04-25 13:33 44.70622 150.68700 36236 ft 466 kts 233°
2026-04-25 13:33 44.66148 150.62128 36244 ft 465 kts 233°
2026-04-25 13:34 44.61663 150.55554 36244 ft 465 kts 233°
2026-04-25 13:34 44.57938 150.50105 36258 ft 465 kts 233°
2026-04-25 13:35 44.52736 150.42520 36252 ft 463 kts 233°
2026-04-25 13:35 44.48996 150.37077 36254 ft 463 kts 233°
2026-04-25 13:36 44.44529 150.30589 36258 ft 463 kts 233°
2026-04-25 13:36 44.40093 150.24161 36226 ft 462 kts 233°
2026-04-25 13:37 44.35624 150.17704 36259 ft 461 kts 233°
2026-04-25 13:37 44.31167 150.11277 36262 ft 460 kts 233°
2026-04-25 13:38 44.26705 150.04856 36264 ft 460 kts 233°
2026-04-25 13:38 44.22248 149.98458 36256 ft 460 kts 233°
2026-04-25 13:39 44.17786 149.92070 36267 ft 459 kts 233°
2026-04-25 13:39 44.13324 149.85695 36271 ft 459 kts 233°
2026-04-25 13:40 44.08860 149.79331 36275 ft 459 kts 233°
2026-04-25 13:40 44.04391 149.72974 36274 ft 459 kts 233°
2026-04-25 13:41 43.99918 149.66628 36278 ft 459 kts 233°
2026-04-25 13:41 43.95446 149.60298 36278 ft 459 kts 233°
2026-04-25 13:42 43.91000 149.54018 36273 ft 459 kts 233°
2026-04-25 13:42 43.86515 149.47697 36283 ft 459 kts 233°
2026-04-25 13:43 43.82036 149.41399 36277 ft 459 kts 233°
2026-04-25 13:43 43.77548 149.35104 36278 ft 459 kts 233°
2026-04-25 13:44 43.73057 149.28819 36266 ft 459 kts 233°
2026-04-25 13:44 43.68582 149.22569 36281 ft 460 kts 233°
2026-04-25 13:45 43.64082 149.16298 36284 ft 460 kts 233°
2026-04-25 13:45 43.59582 149.10044 36284 ft 459 kts 233°
2026-04-25 13:46 43.55075 149.03792 36280 ft 460 kts 232°
2026-04-25 13:46 43.50562 148.97546 36286 ft 460 kts 232°
2026-04-25 13:47 43.46047 148.91312 36287 ft 460 kts 232°
2026-04-25 13:47 43.41528 148.85085 36267 ft 460 kts 232°
2026-04-25 13:48 43.37002 148.78864 36292 ft 460 kts 232°
2026-04-25 13:48 43.32473 148.72653 36294 ft 460 kts 232°
2026-04-25 13:49 43.27943 148.66453 36282 ft 460 kts 232°
2026-04-25 13:49 43.23401 148.60251 36293 ft 460 kts 232°
2026-04-25 13:50 43.18903 148.54123 36292 ft 459 kts 232°
2026-04-25 13:50 43.14366 148.47954 36297 ft 459 kts 232°
2026-04-25 13:51 43.09824 148.41794 36294 ft 459 kts 232°
2026-04-25 13:51 43.05280 148.35643 36292 ft 459 kts 232°
2026-04-25 13:52 43.00729 148.29497 36299 ft 459 kts 232°
2026-04-25 13:52 42.96178 148.23365 36300 ft 459 kts 232°
2026-04-25 13:53 42.91659 148.17290 36292 ft 459 kts 231°
2026-04-25 13:53 42.87112 148.11189 36301 ft 458 kts 231°
2026-04-25 13:54 42.82561 148.05097 36302 ft 458 kts 231°
2026-04-25 13:54 42.78006 147.99012 36303 ft 458 kts 231°
2026-04-25 13:55 42.73449 147.92938 36302 ft 458 kts 231°
2026-04-25 13:55 42.68893 147.86879 36303 ft 458 kts 231°
2026-04-25 13:56 42.64335 147.80830 36307 ft 458 kts 231°
2026-04-25 13:56 42.59776 147.74792 36291 ft 458 kts 231°
2026-04-25 13:57 42.55222 147.68777 36304 ft 456 kts 231°
2026-04-25 13:57 42.50683 147.62793 36308 ft 455 kts 231°
2026-04-25 13:58 42.46142 147.56817 36309 ft 455 kts 231°
2026-04-25 13:58 42.41633 147.50896 36312 ft 455 kts 231°
2026-04-25 13:59 42.37093 147.44948 36313 ft 454 kts 231°
2026-04-25 13:59 42.32552 147.38999 36317 ft 454 kts 231°
2026-04-25 14:00 42.28015 147.33065 36318 ft 454 kts 231°
2026-04-25 14:00 42.23473 147.27139 36316 ft 454 kts 231°
2026-04-25 14:01 42.18926 147.21220 36314 ft 454 kts 230°
2026-04-25 14:01 42.14370 147.15303 36317 ft 454 kts 230°
2026-04-25 14:02 42.09810 147.09392 36311 ft 455 kts 230°
2026-04-25 14:02 42.05276 147.03528 36318 ft 455 kts 230°
2026-04-25 14:03 42.00715 146.97641 36315 ft 455 kts 230°
2026-04-25 14:03 41.96152 146.91764 36298 ft 454 kts 230°
2026-04-25 14:04 41.91576 146.85882 36309 ft 454 kts 230°
2026-04-25 14:04 41.87006 146.80024 36303 ft 454 kts 230°
2026-04-25 14:05 41.82451 146.74174 36311 ft 453 kts 230°
2026-04-25 14:05 41.77903 146.68344 36303 ft 452 kts 230°
2026-04-25 14:06 41.73351 146.62527 36323 ft 452 kts 230°
2026-04-25 14:06 41.68791 146.56713 36320 ft 452 kts 230°
2026-04-25 14:07 41.64262 146.50950 36304 ft 452 kts 230°
2026-04-25 14:07 41.59696 146.45154 36313 ft 452 kts 230°
2026-04-25 14:08 41.55132 146.39371 36309 ft 452 kts 230°
2026-04-25 14:08 41.50567 146.33598 36310 ft 452 kts 230°
2026-04-25 14:09 41.45998 146.27833 36311 ft 452 kts 230°
2026-04-25 14:09 41.41433 146.22084 36311 ft 451 kts 230°
2026-04-25 14:10 41.36868 146.16348 36308 ft 452 kts 229°
2026-04-25 14:10 41.32296 146.10613 36313 ft 451 kts 229°
2026-04-25 14:11 41.27749 146.04921 36311 ft 451 kts 229°
2026-04-25 14:11 41.23171 145.99203 36311 ft 451 kts 229°
2026-04-25 14:12 41.18593 145.93495 36276 ft 451 kts 229°
2026-04-25 14:12 41.14018 145.87803 36312 ft 450 kts 229°
2026-04-25 14:13 41.09451 145.82133 36315 ft 449 kts 229°
2026-04-25 14:13 41.04882 145.76471 36315 ft 449 kts 229°
2026-04-25 14:14 41.00312 145.70818 36312 ft 450 kts 229°
2026-04-25 14:14 40.95739 145.65174 36315 ft 450 kts 229°
2026-04-25 14:15 40.91188 145.59569 36312 ft 450 kts 229°
2026-04-25 14:15 40.86613 145.53943 36304 ft 449 kts 229°
2026-04-25 14:16 40.82039 145.48332 36319 ft 447 kts 229°
2026-04-25 14:16 40.77491 145.42766 36305 ft 446 kts 229°
2026-04-25 14:17 40.72944 145.37207 36305 ft 446 kts 229°
2026-04-25 14:17 40.68416 145.31683 36319 ft 446 kts 229°
2026-04-25 14:18 40.63870 145.26148 36322 ft 446 kts 229°
2026-04-25 14:18 40.59310 145.20607 36303 ft 446 kts 229°
2026-04-25 14:19 40.54751 145.15080 36311 ft 445 kts 229°
2026-04-25 14:19 40.50205 145.09578 36303 ft 444 kts 229°
2026-04-25 14:20 40.45666 145.04096 36315 ft 443 kts 229°
2026-04-25 14:20 40.41494 144.98266 36303 ft 434 kts 238°
2026-04-25 14:21 40.38211 144.91680 36312 ft 431 kts 242°
2026-04-25 14:21 40.35096 144.84968 36306 ft 430 kts 243°
2026-04-25 14:22 40.32000 144.78255 36308 ft 430 kts 243°
2026-04-25 14:22 40.28907 144.71603 36308 ft 431 kts 242°
2026-04-25 14:23 40.25770 144.64903 36308 ft 431 kts 242°
2026-04-25 14:23 40.22625 144.58206 36310 ft 431 kts 242°
2026-04-25 14:24 40.19482 144.51527 36294 ft 431 kts 242°
2026-04-25 14:24 40.16334 144.44849 36306 ft 431 kts 242°
2026-04-25 14:25 40.13182 144.38178 36304 ft 431 kts 242°
2026-04-25 14:25 40.10047 144.31557 36303 ft 431 kts 242°
2026-04-25 14:26 40.06889 144.24900 36299 ft 431 kts 242°
2026-04-25 14:26 40.03732 144.18262 36301 ft 430 kts 242°
2026-04-25 14:27 40.00569 144.11624 36304 ft 430 kts 242°
2026-04-25 14:27 39.97404 144.04994 36297 ft 430 kts 242°
2026-04-25 14:28 39.94771 143.99490 36306 ft 430 kts 242°
2026-04-25 14:28 39.91599 143.92873 36289 ft 431 kts 242°
2026-04-25 14:29 39.87905 143.85184 36300 ft 431 kts 242°
2026-04-25 14:29 39.85239 143.79647 36281 ft 430 kts 242°
2026-04-25 14:30 39.82089 143.73117 36296 ft 428 kts 242°
2026-04-25 14:30 39.77343 143.63305 36291 ft 427 kts 242°
2026-04-25 14:31 39.74175 143.56769 36287 ft 426 kts 241°
2026-04-25 14:31 39.71012 143.50261 36292 ft 426 kts 241°
2026-04-25 14:32 39.67851 143.43768 36293 ft 425 kts 241°
2026-04-25 14:32 39.64681 143.37272 36292 ft 425 kts 241°
2026-04-25 14:33 39.61533 143.30831 36293 ft 425 kts 241°
2026-04-25 14:33 39.58361 143.24357 36286 ft 425 kts 241°
2026-04-25 14:34 39.55187 143.17892 36287 ft 425 kts 241°
2026-04-25 14:34 39.52005 143.11423 36287 ft 425 kts 241°
2026-04-25 14:35 39.48822 143.04965 36290 ft 425 kts 241°
2026-04-25 14:35 39.45634 142.98512 36290 ft 425 kts 241°
2026-04-25 14:36 39.42443 142.92063 36279 ft 425 kts 241°
2026-04-25 14:36 39.39247 142.85619 36290 ft 425 kts 241°
2026-04-25 14:37 39.36047 142.79181 36290 ft 425 kts 241°
2026-04-25 14:37 39.32844 142.72749 36284 ft 425 kts 240°
2026-04-25 14:38 39.29642 142.66330 36286 ft 425 kts 240°
2026-04-25 14:38 39.26433 142.59912 36284 ft 425 kts 240°
2026-04-25 14:39 39.23183 142.53602 36284 ft 427 kts 237°
2026-04-25 14:39 39.19415 142.47651 36272 ft 429 kts 234°
2026-04-25 14:40 39.15546 142.41811 36279 ft 428 kts 234°
2026-04-25 14:40 39.11669 142.36006 36283 ft 425 kts 234°
2026-04-25 14:41 39.07825 142.30245 36282 ft 424 kts 234°
2026-04-25 14:41 39.03988 142.24489 36281 ft 423 kts 234°
2026-04-25 14:42 39.00797 142.19706 36284 ft 423 kts 234°
2026-04-25 14:42 38.96316 142.13003 36287 ft 423 kts 234°
2026-04-25 14:43 38.92500 142.07307 36282 ft 423 kts 234°
2026-04-25 14:43 38.88652 142.01574 36287 ft 423 kts 234°
2026-04-25 14:44 38.84806 141.95855 36289 ft 424 kts 234°
2026-04-25 14:44 38.80951 141.90134 36278 ft 423 kts 234°
2026-04-25 14:45 38.77100 141.84428 36288 ft 423 kts 234°
2026-04-25 14:45 38.73250 141.78733 36289 ft 422 kts 234°
2026-04-25 14:46 38.69402 141.73052 36284 ft 421 kts 234°
2026-04-25 14:46 38.65588 141.67435 36285 ft 416 kts 234°
2026-04-25 14:47 38.62441 141.62804 36283 ft 415 kts 234°
2026-04-25 14:47 38.58013 141.56297 36283 ft 415 kts 234°
2026-04-25 14:48 38.54247 141.50774 36282 ft 415 kts 234°
2026-04-25 14:48 38.50445 141.45208 36281 ft 416 kts 234°
2026-04-25 14:49 38.46640 141.39646 36273 ft 416 kts 234°
2026-04-25 14:49 38.42828 141.34090 36267 ft 416 kts 234°
2026-04-25 14:50 38.39022 141.28553 36271 ft 415 kts 234°
2026-04-25 14:50 38.35216 141.23022 36269 ft 415 kts 234°
2026-04-25 14:51 38.31413 141.17502 36267 ft 415 kts 234°
2026-04-25 14:51 38.27605 141.11986 36267 ft 415 kts 233°
2026-04-25 14:52 38.23838 141.06542 36263 ft 410 kts 234°
2026-04-25 14:52 38.20684 141.01992 36267 ft 408 kts 234°
2026-04-25 14:53 38.16519 140.95553 36262 ft 402 kts 240°
2026-04-25 14:53 38.14048 140.89260 36266 ft 397 kts 252°
2026-04-25 14:54 38.12903 140.82413 36263 ft 397 kts 260°
2026-04-25 14:54 38.12242 140.75436 36264 ft 398 kts 262°
2026-04-25 14:55 38.11631 140.68443 36270 ft 400 kts 262°
2026-04-25 14:55 38.10990 140.61401 36263 ft 402 kts 261°
2026-04-25 14:56 38.10325 140.54358 36263 ft 402 kts 261°
2026-04-25 14:56 38.09656 140.47358 36262 ft 402 kts 261°
2026-04-25 14:57 38.08974 140.40270 36262 ft 402 kts 261°
2026-04-25 14:57 38.08294 140.33265 36264 ft 403 kts 261°
2026-04-25 14:58 38.07608 140.26205 36261 ft 403 kts 261°
2026-04-25 14:58 38.06920 140.19145 36263 ft 403 kts 261°
2026-04-25 14:59 38.06224 140.12099 36246 ft 403 kts 261°
2026-04-25 14:59 38.05519 140.05015 36244 ft 406 kts 261°
2026-04-25 15:00 38.04809 139.97900 36240 ft 406 kts 261°
2026-04-25 15:00 38.04096 139.90791 36248 ft 406 kts 261°
2026-04-25 15:01 38.03379 139.83685 36231 ft 406 kts 261°
2026-04-25 15:01 38.02662 139.76570 36234 ft 406 kts 261°
2026-04-25 15:02 38.01935 139.69465 36214 ft 406 kts 261°
2026-04-25 15:02 38.01200 139.62360 36216 ft 407 kts 261°
2026-04-25 15:03 38.00464 139.55286 36213 ft 407 kts 261°
2026-04-25 15:03 37.99722 139.48169 36212 ft 408 kts 261°
2026-04-25 15:04 37.99028 139.41544 36197 ft 412 kts 261°
2026-04-25 15:04 37.98271 139.34360 36197 ft 411 kts 260°
2026-04-25 15:05 37.97510 139.27172 36194 ft 411 kts 260°
2026-04-25 15:06 37.96359 139.16408 36184 ft 410 kts 260°
2026-04-25 15:06 37.95020 139.09416 36182 ft 409 kts 250°
2026-04-25 15:07 37.92876 139.02785 36179 ft 408 kts 248°
2026-04-25 15:07 37.90591 138.96224 36181 ft 407 kts 247°
2026-04-25 15:08 37.88288 138.89665 36181 ft 407 kts 247°
2026-04-25 15:08 37.85998 138.83110 36181 ft 407 kts 247°
2026-04-25 15:09 37.83717 138.76564 36186 ft 406 kts 247°
2026-04-25 15:09 37.80303 138.66788 36181 ft 405 kts 247°
2026-04-25 15:10 37.78020 138.60271 36189 ft 405 kts 247°
2026-04-25 15:11 37.74598 138.50529 36184 ft 406 kts 247°
2026-04-25 15:11 37.72300 138.44005 36181 ft 406 kts 247°
2026-04-25 15:12 37.68846 138.34229 36180 ft 406 kts 247°
2026-04-25 15:12 37.67318 138.29910 36182 ft 406 kts 247°
2026-04-25 15:13 37.63090 138.17985 36198 ft 407 kts 247°
2026-04-25 15:14 37.60748 138.11408 36172 ft 410 kts 246°
2026-04-25 15:14 37.58422 138.04883 36177 ft 410 kts 246°
2026-04-25 15:15 37.56083 137.98337 36184 ft 410 kts 246°
2026-04-25 15:15 37.53739 137.91794 36179 ft 409 kts 246°
2026-04-25 15:16 37.51394 137.85260 36171 ft 409 kts 246°
2026-04-25 15:16 37.47882 137.75505 36175 ft 407 kts 246°
2026-04-25 15:17 37.44378 137.65800 36170 ft 407 kts 246°
2026-04-25 15:18 37.42033 137.59324 36174 ft 407 kts 246°
2026-04-25 15:18 37.38509 137.49616 36175 ft 406 kts 246°
2026-04-25 15:19 37.36935 137.45290 36173 ft 406 kts 246°
2026-04-25 15:19 37.34197 137.37780 36170 ft 407 kts 246°
2026-04-25 15:20 37.31834 137.31314 36167 ft 407 kts 246°
2026-04-25 15:20 37.29469 137.24856 36160 ft 407 kts 246°
2026-04-25 15:21 37.27103 137.18408 36161 ft 407 kts 246°
2026-04-25 15:21 37.24753 137.12017 36166 ft 405 kts 246°
2026-04-25 15:22 37.22392 137.05609 36173 ft 404 kts 245°
2026-04-25 15:22 37.20026 136.99204 36170 ft 404 kts 245°
2026-04-25 15:23 37.17662 136.92814 36176 ft 403 kts 245°
2026-04-25 15:23 37.15304 136.86454 36158 ft 402 kts 245°
2026-04-25 15:24 37.12939 136.80093 36159 ft 402 kts 245°
2026-04-25 15:24 37.10976 136.74822 36172 ft 402 kts 245°
2026-04-25 15:25 37.08213 136.67407 36170 ft 402 kts 245°
2026-04-25 15:25 37.05855 136.61097 36170 ft 402 kts 245°
2026-04-25 15:26 37.03478 136.54754 36149 ft 403 kts 245°
2026-04-25 15:26 37.01099 136.48415 36157 ft 402 kts 245°
2026-04-25 15:27 36.98718 136.42084 36159 ft 401 kts 245°
2026-04-25 15:28 36.95151 136.32623 36153 ft 401 kts 245°
2026-04-25 15:28 36.92766 136.26313 36154 ft 401 kts 245°
2026-04-25 15:29 36.90384 136.20022 36156 ft 399 kts 245°
2026-04-25 15:29 36.88006 136.13759 36151 ft 399 kts 245°
2026-04-25 15:30 36.85626 136.07499 36150 ft 399 kts 245°
2026-04-25 15:30 36.83243 136.01244 36151 ft 399 kts 245°
2026-04-25 15:31 36.80858 135.94999 36152 ft 399 kts 245°
2026-04-25 15:31 36.78482 135.88787 36151 ft 399 kts 244°
2026-04-25 15:32 36.76089 135.82546 36153 ft 399 kts 244°
2026-04-25 15:32 36.73691 135.76301 36152 ft 400 kts 244°
2026-04-25 15:33 36.70061 135.66874 36150 ft 403 kts 244°
2026-04-25 15:33 36.67631 135.60579 36149 ft 403 kts 244°
2026-04-25 15:34 36.65195 135.54279 36151 ft 403 kts 244°
2026-04-25 15:34 36.63165 135.49041 36140 ft 404 kts 244°
2026-04-25 15:35 36.59103 135.38583 36147 ft 404 kts 244°
2026-04-25 15:36 36.55426 135.29147 36145 ft 404 kts 244°
2026-04-25 15:36 36.52969 135.22857 36143 ft 404 kts 244°
2026-04-25 15:37 36.50508 135.16568 36140 ft 404 kts 244°
2026-04-25 15:37 36.48051 135.10303 36137 ft 402 kts 244°
2026-04-25 15:38 36.45602 135.04071 36136 ft 400 kts 244°
2026-04-25 15:38 36.43157 134.97860 36132 ft 400 kts 244°
2026-04-25 15:39 36.40724 134.91693 36130 ft 400 kts 244°
2026-04-25 15:39 36.38272 134.85489 36133 ft 401 kts 244°
2026-04-25 15:40 36.36628 134.81335 36130 ft 401 kts 244°
2026-04-25 15:40 36.33346 134.73062 36129 ft 401 kts 244°
2026-04-25 15:41 36.30882 134.66862 36127 ft 401 kts 243°
2026-04-25 15:41 36.28407 134.60649 36124 ft 402 kts 243°
2026-04-25 15:42 36.25930 134.54441 36121 ft 402 kts 243°
2026-04-25 15:42 36.23283 134.48350 36113 ft 402 kts 240°
2026-04-25 15:43 36.20412 134.42469 36119 ft 401 kts 239°
2026-04-25 15:43 36.17486 134.36588 36119 ft 401 kts 239°
2026-04-25 15:44 36.14556 134.30714 36119 ft 401 kts 239°
2026-04-25 15:44 36.11632 134.24849 36116 ft 400 kts 239°
2026-04-25 15:45 36.08715 134.19003 36116 ft 399 kts 239°
2026-04-25 15:45 36.06780 134.15130 36116 ft 399 kts 239°
2026-04-25 15:46 36.02867 134.07309 36114 ft 400 kts 239°
2026-04-25 15:46 35.99950 134.01492 36113 ft 401 kts 239°
2026-04-25 15:47 35.97007 133.95632 36113 ft 401 kts 239°
2026-04-25 15:47 35.94055 133.89774 36110 ft 401 kts 239°
2026-04-25 15:48 35.91110 133.83928 36111 ft 401 kts 239°
2026-04-25 15:48 35.88158 133.78076 36110 ft 402 kts 239°
2026-04-25 15:49 35.85204 133.72232 36099 ft 401 kts 239°
2026-04-25 15:49 35.82256 133.66411 36108 ft 400 kts 239°
2026-04-25 15:50 35.79301 133.60589 36113 ft 402 kts 239°
2026-04-25 15:50 35.76320 133.54723 36107 ft 406 kts 239°
2026-04-25 15:51 35.74338 133.50829 36100 ft 403 kts 239°
2026-04-25 15:51 35.70404 133.43115 36106 ft 398 kts 238°
2026-04-25 15:52 35.67419 133.37269 36102 ft 404 kts 238°
2026-04-25 15:52 35.64424 133.31416 36099 ft 403 kts 238°
2026-04-25 15:53 35.61465 133.25643 36103 ft 401 kts 238°
2026-04-25 15:53 35.58488 133.19846 36107 ft 403 kts 238°
2026-04-25 15:54 35.55507 133.13970 36089 ft 404 kts 240°
2026-04-25 15:54 35.53305 133.07658 36103 ft 402 kts 251°
2026-04-25 15:55 35.52314 133.00879 36120 ft 406 kts 259°
2026-04-25 15:55 35.51695 132.93924 36102 ft 412 kts 259°
2026-04-25 15:56 35.51117 132.86916 36100 ft 413 kts 259°
2026-04-25 15:56 35.50519 132.79990 36101 ft 408 kts 259°
2026-04-25 15:57 35.49919 132.73093 36105 ft 405 kts 259°
2026-04-25 15:57 35.49298 132.66208 36101 ft 405 kts 259°
2026-04-25 15:58 35.48669 132.59339 36112 ft 407 kts 259°
2026-04-25 15:58 35.48032 132.52408 36100 ft 411 kts 259°
2026-04-25 15:59 35.47393 132.45435 36094 ft 409 kts 259°
2026-04-25 15:59 35.46755 132.38527 36106 ft 408 kts 259°
2026-04-25 16:00 35.46320 132.33872 36096 ft 411 kts 259°
2026-04-25 16:00 35.45447 132.24587 36097 ft 412 kts 259°
2026-04-25 16:01 35.44789 132.17589 36096 ft 414 kts 259°
2026-04-25 16:01 35.44124 132.10559 36089 ft 415 kts 259°
2026-04-25 16:02 35.43456 132.03537 36091 ft 413 kts 259°
2026-04-25 16:02 35.42787 131.96581 36100 ft 414 kts 259°
2026-04-25 16:03 35.42105 131.89548 36096 ft 417 kts 259°
2026-04-25 16:03 35.41417 131.82476 36094 ft 417 kts 259°
2026-04-25 16:04 35.40728 131.75421 36091 ft 417 kts 259°
2026-04-25 16:04 35.40032 131.68348 36088 ft 418 kts 259°
2026-04-25 16:05 35.39332 131.61285 36090 ft 418 kts 259°
2026-04-25 16:06 35.38271 131.50663 36087 ft 420 kts 259°
2026-04-25 16:06 35.37555 131.43543 36088 ft 421 kts 259°
2026-04-25 16:07 35.36837 131.36432 36086 ft 419 kts 259°
2026-04-25 16:07 35.36116 131.29345 36083 ft 420 kts 259°
2026-04-25 16:08 35.35391 131.22271 36087 ft 422 kts 259°
2026-04-25 16:08 35.34657 131.15139 36086 ft 422 kts 259°
2026-04-25 16:09 35.33917 131.08001 36094 ft 424 kts 259°
2026-04-25 16:09 35.33295 131.02036 36086 ft 425 kts 259°
2026-04-25 16:10 35.32544 130.94859 36083 ft 425 kts 259°
2026-04-25 16:10 35.31787 130.87665 36090 ft 427 kts 259°
2026-04-25 16:11 35.31020 130.80432 36083 ft 429 kts 259°
2026-04-25 16:11 35.30250 130.73199 36083 ft 429 kts 259°
2026-04-25 16:12 35.29475 130.65956 36071 ft 428 kts 259°
2026-04-25 16:12 35.28698 130.58739 36082 ft 426 kts 258°
2026-04-25 16:13 35.27924 130.51598 36084 ft 426 kts 258°
2026-04-25 16:13 35.27140 130.44409 36090 ft 427 kts 259°
2026-04-25 16:14 35.26345 130.37168 36083 ft 430 kts 259°
2026-04-25 16:14 35.25544 130.29902 36083 ft 430 kts 259°
2026-04-25 16:15 35.24744 130.22668 36086 ft 428 kts 258°
2026-04-25 16:15 35.23938 130.15438 36083 ft 429 kts 258°
2026-04-25 16:16 35.23126 130.08201 36083 ft 429 kts 258°
2026-04-25 16:16 35.22310 130.00958 36092 ft 431 kts 259°
2026-04-25 16:17 35.21488 129.93721 36080 ft 433 kts 259°
2026-04-25 16:17 35.20662 129.86417 36076 ft 432 kts 259°
2026-04-25 16:18 35.19957 129.79123 36095 ft 432 kts 260°
2026-04-25 16:18 35.19295 129.71797 36087 ft 435 kts 260°
2026-04-25 16:19 35.18611 129.64441 36082 ft 435 kts 260°
2026-04-25 16:19 35.17905 129.57072 36104 ft 436 kts 260°
2026-04-25 16:20 35.16831 129.46020 36080 ft 438 kts 259°
2026-04-25 16:21 35.15750 129.34964 36104 ft 436 kts 259°
2026-04-25 16:21 35.15019 129.27575 36092 ft 440 kts 260°
2026-04-25 16:22 35.14281 129.20149 36084 ft 441 kts 260°
2026-04-25 16:22 35.13538 129.12709 36090 ft 441 kts 260°
2026-04-25 16:23 35.12776 129.05247 36084 ft 441 kts 258°
2026-04-25 16:23 35.11190 128.98127 36091 ft 437 kts 246°
2026-04-25 16:24 35.08446 128.91535 36085 ft 435 kts 241°
2026-04-25 16:24 35.05455 128.85080 36080 ft 439 kts 240°
2026-04-25 16:25 35.01842 128.79037 36087 ft 440 kts 231°
2026-04-25 16:25 34.97868 128.73373 36093 ft 439 kts 230°
2026-04-25 16:26 34.93847 128.67765 36086 ft 439 kts 230°
2026-04-25 16:26 34.89829 128.62155 36087 ft 440 kts 230°
2026-04-25 16:27 34.85811 128.56550 36089 ft 438 kts 230°
2026-04-25 16:27 34.81807 128.50962 36085 ft 437 kts 230°
2026-04-25 16:28 34.77799 128.45384 36091 ft 437 kts 230°
2026-04-25 16:28 34.73810 128.39831 36085 ft 434 kts 230°
2026-04-25 16:29 34.69839 128.34306 36090 ft 434 kts 230°
2026-04-25 16:29 34.65891 128.28825 36083 ft 434 kts 230°
2026-04-25 16:30 34.61893 128.23284 36078 ft 431 kts 230°
2026-04-25 16:30 34.57979 128.17871 36103 ft 430 kts 230°
2026-04-25 16:31 34.54024 128.12409 36087 ft 432 kts 230°
2026-04-25 16:31 34.50055 128.06936 36083 ft 432 kts 230°
2026-04-25 16:32 34.46077 128.01460 36082 ft 432 kts 230°
2026-04-25 16:32 34.42100 127.95994 36083 ft 432 kts 230°
2026-04-25 16:33 34.38099 127.90502 36087 ft 437 kts 230°
2026-04-25 16:33 34.34076 127.84989 36081 ft 436 kts 230°
2026-04-25 16:34 34.30067 127.79506 36082 ft 434 kts 230°
2026-04-25 16:34 34.26088 127.74070 36081 ft 434 kts 230°
2026-04-25 16:35 34.22047 127.68566 36072 ft 436 kts 230°
2026-04-25 16:35 34.18047 127.63119 36078 ft 436 kts 230°
2026-04-25 16:36 34.14017 127.57639 36075 ft 436 kts 229°
2026-04-25 16:36 34.09986 127.52169 36075 ft 436 kts 229°
2026-04-25 16:37 34.05961 127.46717 36083 ft 434 kts 229°
2026-04-25 16:37 34.01935 127.41271 36070 ft 436 kts 229°
2026-04-25 16:38 33.97895 127.35814 36072 ft 436 kts 229°
2026-04-25 16:38 33.93880 127.30401 36053 ft 435 kts 229°
2026-04-25 16:39 33.89849 127.24974 36067 ft 433 kts 229°
2026-04-25 16:39 33.85816 127.19548 36073 ft 436 kts 229°
2026-04-25 16:40 33.81765 127.14107 36062 ft 437 kts 229°
2026-04-25 16:40 33.77876 127.08893 36057 ft 435 kts 229°
2026-04-25 16:41 33.73806 127.03455 36065 ft 434 kts 229°
2026-04-25 16:41 33.67781 126.95403 36068 ft 437 kts 229°
2026-04-25 16:42 33.63515 126.90125 36054 ft 437 kts 225°
2026-04-25 16:42 33.59075 126.85148 36061 ft 437 kts 224°
2026-04-25 16:43 33.54606 126.80215 36070 ft 436 kts 224°
2026-04-25 16:43 33.50131 126.75283 36061 ft 436 kts 224°
2026-04-25 16:44 33.45677 126.70370 36072 ft 437 kts 224°
2026-04-25 16:44 33.41228 126.65460 36065 ft 437 kts 224°
2026-04-25 16:45 33.36754 126.60532 36060 ft 437 kts 224°
2026-04-25 16:45 33.32282 126.55607 36072 ft 436 kts 224°
2026-04-25 16:46 33.27818 126.50699 36069 ft 436 kts 224°
2026-04-25 16:46 33.24832 126.47420 36060 ft 437 kts 224°
2026-04-25 16:47 33.18852 126.40861 36059 ft 439 kts 224°
2026-04-25 16:47 33.14357 126.35940 36056 ft 438 kts 224°
2026-04-25 16:48 33.09872 126.31037 36050 ft 437 kts 224°
2026-04-25 16:48 33.05393 126.26147 36050 ft 437 kts 224°
2026-04-25 16:49 33.00645 126.21551 36050 ft 443 kts 215°
2026-04-25 16:49 32.95053 126.18350 36046 ft 450 kts 205°
2026-04-25 16:50 32.89162 126.15779 36050 ft 451 kts 204°
2026-04-25 16:50 32.83275 126.13315 36046 ft 449 kts 204°
2026-04-25 16:51 32.77378 126.10827 36048 ft 448 kts 204°
2026-04-25 16:51 32.73486 126.09170 36048 ft 448 kts 204°
2026-04-25 16:52 32.65685 126.05838 36036 ft 447 kts 204°
2026-04-25 16:52 32.59844 126.03348 36045 ft 445 kts 204°
2026-04-25 16:53 32.51096 125.99626 36045 ft 445 kts 204°
2026-04-25 16:54 32.45226 125.97141 36044 ft 444 kts 204°
2026-04-25 16:54 32.39426 125.94686 36045 ft 442 kts 204°
2026-04-25 16:55 32.33673 125.92247 36052 ft 442 kts 204°
2026-04-25 16:55 32.27884 125.89798 36022 ft 441 kts 204°
2026-04-25 16:56 32.22124 125.87369 36048 ft 439 kts 204°
2026-04-25 16:56 32.16381 125.84950 36051 ft 438 kts 204°
2026-04-25 16:57 32.10636 125.82532 36048 ft 438 kts 204°
2026-04-25 16:57 32.04907 125.80125 36045 ft 436 kts 205°
2026-04-25 16:58 31.99199 125.77734 36054 ft 436 kts 204°
2026-04-25 16:58 31.94437 125.75738 36056 ft 435 kts 205°
2026-04-25 16:59 31.88728 125.73329 36034 ft 438 kts 204°
2026-04-25 16:59 31.82990 125.70916 36050 ft 437 kts 204°
2026-04-25 17:00 31.77263 125.68516 36057 ft 437 kts 204°
2026-04-25 17:00 31.71542 125.66122 36057 ft 437 kts 204°
2026-04-25 17:01 31.65821 125.63739 36051 ft 435 kts 205°
2026-04-25 17:01 31.60136 125.61355 36054 ft 433 kts 205°
2026-04-25 17:02 31.54460 125.58979 36053 ft 433 kts 205°
2026-04-25 17:02 31.48786 125.56617 36041 ft 432 kts 205°
2026-04-25 17:03 31.43151 125.54253 36051 ft 430 kts 205°
2026-04-25 17:03 31.37501 125.51882 36052 ft 430 kts 205°
2026-04-25 17:04 31.31866 125.49524 36064 ft 431 kts 204°
2026-04-25 17:04 31.26192 125.47156 36059 ft 433 kts 205°
2026-04-25 17:05 31.20529 125.44799 36062 ft 431 kts 205°
2026-04-25 17:05 31.12068 125.41280 36057 ft 431 kts 205°
2026-04-25 17:06 31.06415 125.38932 36060 ft 431 kts 205°
2026-04-25 17:06 31.00807 125.36605 36060 ft 431 kts 205°
2026-04-25 17:07 30.95165 125.34269 36064 ft 431 kts 205°
2026-04-25 17:07 30.89514 125.31931 36050 ft 431 kts 205°
2026-04-25 17:08 30.83877 125.29603 36058 ft 428 kts 205°
2026-04-25 17:08 30.78293 125.27301 36062 ft 419 kts 205°
2026-04-25 17:09 30.72856 125.25067 36063 ft 411 kts 205°
2026-04-25 17:09 30.67463 125.22841 36044 ft 413 kts 205°
2026-04-25 17:10 30.62045 125.20609 36058 ft 413 kts 205°
2026-04-25 17:10 30.56632 125.18385 36059 ft 412 kts 205°
2026-04-25 17:11 30.51253 125.16178 36060 ft 412 kts 205°
2026-04-25 17:11 30.45852 125.13970 36048 ft 410 kts 205°
2026-04-25 17:12 30.40503 125.11783 36059 ft 407 kts 205°
2026-04-25 17:12 30.35157 125.09592 36060 ft 407 kts 205°
2026-04-25 17:13 30.30726 125.07778 36058 ft 407 kts 205°
2026-04-25 17:13 30.24529 125.05247 36059 ft 406 kts 205°
2026-04-25 17:14 30.19188 125.03072 36062 ft 403 kts 205°
2026-04-25 17:14 30.13943 125.00936 36061 ft 403 kts 205°
2026-04-25 17:15 30.08631 124.98774 36079 ft 404 kts 205°
2026-04-25 17:15 30.03304 124.96606 36063 ft 408 kts 205°
2026-04-25 17:16 29.97943 124.94429 36062 ft 407 kts 205°
2026-04-25 17:16 29.92633 124.92165 36062 ft 406 kts 206°
2026-04-25 17:17 29.87354 124.89878 36061 ft 406 kts 206°
2026-04-25 17:17 29.82064 124.87609 36061 ft 404 kts 206°
2026-04-25 17:18 29.76809 124.85370 36062 ft 402 kts 206°
2026-04-25 17:18 29.71566 124.83139 36061 ft 402 kts 206°
2026-04-25 17:19 29.66326 124.80912 36061 ft 402 kts 206°
2026-04-25 17:19 29.61074 124.78682 36061 ft 402 kts 206°
2026-04-25 17:20 29.55827 124.76458 36059 ft 402 kts 206°
2026-04-25 17:20 29.50607 124.74246 36059 ft 402 kts 206°
2026-04-25 17:21 29.45324 124.72010 36066 ft 404 kts 206°
2026-04-25 17:21 29.40047 124.69778 36062 ft 405 kts 206°
2026-04-25 17:22 29.35652 124.67925 36064 ft 404 kts 206°
2026-04-25 17:22 29.29486 124.65326 36064 ft 404 kts 206°
2026-04-25 17:23 29.24236 124.63114 36062 ft 404 kts 206°
2026-04-25 17:23 29.18927 124.60881 36061 ft 404 kts 206°
2026-04-25 17:24 29.13640 124.58658 36064 ft 405 kts 206°
2026-04-25 17:24 29.08391 124.56454 36064 ft 404 kts 206°
2026-04-25 17:25 29.03108 124.54239 36064 ft 404 kts 206°
2026-04-25 17:25 28.97825 124.52010 36063 ft 403 kts 207°
2026-04-25 17:26 28.92929 124.49041 36065 ft 396 kts 217°
2026-04-25 17:26 28.88382 124.45494 36067 ft 397 kts 218°
2026-04-25 17:27 28.83877 124.41843 36062 ft 398 kts 218°
2026-04-25 17:27 28.80887 124.39420 36034 ft 398 kts 219°
2026-04-25 17:28 28.74852 124.34564 36064 ft 397 kts 218°
2026-04-25 17:28 28.70331 124.30943 36064 ft 397 kts 218°
2026-04-25 17:29 28.65810 124.27327 36061 ft 397 kts 218°
2026-04-25 17:29 28.61321 124.23741 36021 ft 397 kts 219°
2026-04-25 17:30 28.56805 124.20136 36066 ft 397 kts 218°
2026-04-25 17:30 28.52274 124.16523 36061 ft 398 kts 218°
2026-04-25 17:31 28.47742 124.12912 36062 ft 398 kts 218°
2026-04-25 17:31 28.43195 124.09295 36062 ft 398 kts 218°
2026-04-25 17:32 28.38655 124.05687 36062 ft 399 kts 219°
2026-04-25 17:32 28.34868 124.02679 36051 ft 399 kts 219°
2026-04-25 17:33 28.29785 123.98645 36057 ft 399 kts 219°
2026-04-25 17:33 28.25308 123.95004 36087 ft 399 kts 219°
2026-04-25 17:34 28.20805 123.91310 36044 ft 400 kts 219°
2026-04-25 17:34 28.16279 123.87615 36064 ft 402 kts 219°
2026-04-25 17:35 28.11737 123.83924 36062 ft 402 kts 219°
2026-04-25 17:35 28.07196 123.80242 36061 ft 401 kts 219°
2026-04-25 17:36 28.02656 123.76563 36058 ft 401 kts 219°
2026-04-25 17:36 27.98111 123.72884 36051 ft 403 kts 219°
2026-04-25 17:37 27.93552 123.69196 36057 ft 403 kts 219°
2026-04-25 17:37 27.89018 123.65515 36058 ft 403 kts 220°
2026-04-25 17:38 27.85976 123.63034 36052 ft 403 kts 220°
2026-04-25 17:38 27.79911 123.58097 36036 ft 404 kts 220°
2026-04-25 17:39 27.75346 123.54390 36055 ft 405 kts 220°
2026-04-25 17:39 27.70768 123.50677 36056 ft 405 kts 220°
2026-04-25 17:40 27.66193 123.46971 36053 ft 405 kts 220°
2026-04-25 17:40 27.61617 123.43267 36056 ft 405 kts 220°
2026-04-25 17:41 27.57041 123.39569 36049 ft 406 kts 220°
2026-04-25 17:41 27.52449 123.35859 36051 ft 406 kts 220°
2026-04-25 17:42 27.47850 123.32150 36054 ft 406 kts 220°
2026-04-25 17:42 27.43252 123.28445 36048 ft 406 kts 220°
2026-04-25 17:43 27.38661 123.24748 36042 ft 406 kts 220°
2026-04-25 17:43 27.34091 123.21073 36048 ft 407 kts 220°
2026-04-25 17:44 27.29484 123.17372 36048 ft 407 kts 220°
2026-04-25 17:44 27.24874 123.13673 36051 ft 407 kts 220°
2026-04-25 17:45 27.21793 123.11202 36045 ft 407 kts 220°
2026-04-25 17:45 27.15648 123.06280 36047 ft 408 kts 220°
2026-04-25 17:46 27.11770 123.03176 36045 ft 409 kts 220°
2026-04-25 17:46 27.07166 122.99498 36045 ft 409 kts 220°
2026-04-25 17:47 27.02527 122.95801 35851 ft 412 kts 220°
2026-04-25 17:47 27.00188 122.93940 35620 ft 412 kts 220°
2026-04-25 17:47 26.97850 122.92081 35370 ft 413 kts 220°
2026-04-25 17:48 26.93165 122.88360 34919 ft 412 kts 220°
2026-04-25 17:48 26.90826 122.86504 34683 ft 411 kts 220°
2026-04-25 17:48 26.88486 122.84648 34439 ft 411 kts 220°
2026-04-25 17:49 26.86157 122.82800 34215 ft 411 kts 220°
2026-04-25 17:49 26.83835 122.80960 33971 ft 410 kts 220°
2026-04-25 17:49 26.81507 122.79114 33695 ft 410 kts 220°
2026-04-25 17:49 26.79179 122.77268 33424 ft 411 kts 220°
2026-04-25 17:50 26.76842 122.75416 33134 ft 412 kts 220°
2026-04-25 17:50 26.74497 122.73558 32876 ft 414 kts 220°
2026-04-25 17:50 26.72138 122.71691 32614 ft 416 kts 220°
2026-04-25 17:50 26.69778 122.69825 32363 ft 416 kts 220°
2026-04-25 17:51 26.67404 122.67953 32113 ft 417 kts 219°
2026-04-25 17:51 26.65032 122.66086 31861 ft 417 kts 219°
2026-04-25 17:51 26.62659 122.64213 31615 ft 418 kts 219°
2026-04-25 17:51 26.60287 122.62339 31371 ft 418 kts 219°
2026-04-25 17:52 26.57905 122.60456 31152 ft 418 kts 219°
2026-04-25 17:52 26.56332 122.59214 30992 ft 418 kts 219°
2026-04-25 17:52 26.53151 122.56704 30639 ft 420 kts 219°
2026-04-25 17:52 26.50786 122.54841 30405 ft 422 kts 218°
2026-04-25 17:53 26.48359 122.52930 30163 ft 422 kts 218°
2026-04-25 17:53 26.45985 122.51063 29892 ft 423 kts 218°
2026-04-25 17:53 26.43584 122.49178 29632 ft 422 kts 218°
2026-04-25 17:53 26.41177 122.47289 29368 ft 421 kts 218°
2026-04-25 17:54 26.38786 122.45414 29095 ft 419 kts 218°
2026-04-25 17:54 26.36402 122.43544 28827 ft 418 kts 219°
2026-04-25 17:54 26.34033 122.41685 28520 ft 417 kts 219°
2026-04-25 17:54 26.31653 122.39819 28254 ft 418 kts 219°
2026-04-25 17:55 26.29273 122.37951 27993 ft 418 kts 219°
2026-04-25 17:55 26.26893 122.36087 27741 ft 417 kts 219°
2026-04-25 17:55 26.24524 122.34232 27500 ft 416 kts 219°
2026-04-25 17:55 26.22161 122.32383 27258 ft 413 kts 219°
2026-04-25 17:56 26.19816 122.30550 27011 ft 411 kts 219°
2026-04-25 17:56 26.17480 122.28724 26769 ft 410 kts 219°
2026-04-25 17:56 26.15144 122.26898 26520 ft 409 kts 219°
2026-04-25 17:56 26.12819 122.25085 26249 ft 408 kts 219°
2026-04-25 17:57 26.10489 122.23289 26010 ft 409 kts 219°
2026-04-25 17:57 26.08145 122.21494 25769 ft 408 kts 219°
2026-04-25 17:57 26.05804 122.19705 25532 ft 407 kts 219°
2026-04-25 17:57 26.04257 122.18525 25380 ft 407 kts 219°
2026-04-25 17:58 26.01175 122.16172 25073 ft 405 kts 219°
2026-04-25 17:58 25.98824 122.14376 24833 ft 404 kts 220°
2026-04-25 17:58 25.96547 122.12637 24615 ft 403 kts 220°
2026-04-25 17:58 25.94240 122.10874 24402 ft 402 kts 220°
2026-04-25 17:59 25.91932 122.09111 24166 ft 401 kts 220°
2026-04-25 17:59 25.89653 122.07370 23928 ft 400 kts 220°
2026-04-25 17:59 25.87348 122.05612 23709 ft 400 kts 220°
2026-04-25 17:59 25.85058 122.03865 23465 ft 399 kts 220°
2026-04-25 18:00 25.82771 122.02121 23193 ft 398 kts 220°
2026-04-25 18:00 25.80486 122.00378 22910 ft 398 kts 220°
2026-04-25 18:00 25.78212 121.98646 22677 ft 397 kts 220°
2026-04-25 18:00 25.75934 121.96910 22412 ft 397 kts 220°
2026-04-25 18:01 25.73665 121.95184 22145 ft 396 kts 220°
2026-04-25 18:01 25.71386 121.93454 21897 ft 396 kts 220°
2026-04-25 18:01 25.69120 121.91716 21641 ft 396 kts 220°
2026-04-25 18:01 25.66904 121.89968 21357 ft 396 kts 222°
2026-04-25 18:02 25.64831 121.87929 21108 ft 392 kts 230°
2026-04-25 18:02 25.63163 121.85635 20873 ft 388 kts 238°
2026-04-25 18:02 25.61763 121.83065 20622 ft 387 kts 242°
2026-04-25 18:02 25.60445 121.80469 20374 ft 387 kts 243°
2026-04-25 18:03 25.59128 121.77879 20154 ft 386 kts 243°
2026-04-25 18:03 25.57809 121.75298 19910 ft 385 kts 243°
2026-04-25 18:03 25.56486 121.72713 19684 ft 385 kts 243°
2026-04-25 18:03 25.55165 121.70137 19444 ft 385 kts 243°
2026-04-25 18:04 25.53843 121.67563 19219 ft 384 kts 243°
2026-04-25 18:04 25.52524 121.64996 18983 ft 384 kts 243°
2026-04-25 18:04 25.51200 121.62425 18748 ft 384 kts 243°
2026-04-25 18:04 25.49876 121.59852 18503 ft 384 kts 243°
2026-04-25 18:05 25.48453 121.57343 18263 ft 388 kts 237°
2026-04-25 18:05 25.46740 121.55008 17998 ft 390 kts 233°
2026-04-25 18:05 25.44966 121.52742 17747 ft 390 kts 232°
2026-04-25 18:05 25.43192 121.50482 17511 ft 389 kts 233°
2026-04-25 18:06 25.41421 121.48220 17240 ft 388 kts 233°
2026-04-25 18:06 25.39660 121.45969 16982 ft 387 kts 233°
2026-04-25 18:06 25.37896 121.43724 16741 ft 386 kts 233°
2026-04-25 18:06 25.36146 121.41487 16492 ft 385 kts 232°
2026-04-25 18:07 25.34395 121.39248 16249 ft 384 kts 232°
2026-04-25 18:07 25.32654 121.37024 16003 ft 383 kts 232°
2026-04-25 18:07 25.30912 121.34800 15775 ft 382 kts 232°
2026-04-25 18:07 25.29176 121.32586 15511 ft 381 kts 232°
2026-04-25 18:08 25.27442 121.30375 15266 ft 380 kts 232°
2026-04-25 18:08 25.25715 121.28175 15010 ft 379 kts 232°
2026-04-25 18:08 25.23994 121.25983 14382 ft 374 kts 232°
2026-04-25 18:08 25.22294 121.23820 13617 ft 372 kts 231°
2026-04-25 18:09 25.20606 121.21670 12824 ft 370 kts 231°
2026-04-25 18:09 25.18949 121.19564 12096 ft 367 kts 231°
2026-04-25 18:09 25.17278 121.17439 11368 ft 365 kts 231°
2026-04-25 18:09 25.16717 121.16727 11256 ft 360 kts 231°
2026-04-25 18:10 25.14115 121.13428 11063 ft 326 kts 231°
2026-04-25 18:10 25.12677 121.11606 10974 ft 300 kts 231°
2026-04-25 18:10 25.11373 121.09956 10883 ft 275 kts 231°
2026-04-25 18:10 25.10139 121.08398 10774 ft 264 kts 231°
2026-04-25 18:11 25.08964 121.06899 10670 ft 254 kts 231°
2026-04-25 18:11 25.07811 121.05425 10559 ft 254 kts 231°
2026-04-25 18:11 25.06656 121.03952 10404 ft 255 kts 231°
2026-04-25 18:11 25.05495 121.02476 10057 ft 254 kts 230°
2026-04-25 18:12 25.04332 121.00999 9691 ft 261 kts 230°
2026-04-25 18:12 25.03110 120.99447 9540 ft 272 kts 230°
2026-04-25 18:12 25.01877 120.97885 9290 ft 267 kts 230°
2026-04-25 18:12 25.00649 120.96330 8688 ft 270 kts 230°
2026-04-25 18:13 24.99415 120.94766 8238 ft 270 kts 230°
2026-04-25 18:13 24.98179 120.93201 7862 ft 271 kts 230°
2026-04-25 18:13 24.96946 120.91642 7504 ft 269 kts 230°
2026-04-25 18:14 24.94490 120.88571 6800 ft 266 kts 227°
2026-04-25 18:14 24.92982 120.87398 6451 ft 267 kts 204°
2026-04-25 18:14 24.91155 120.87089 6093 ft 270 kts 177°
2026-04-25 18:14 24.89379 120.87753 5746 ft 275 kts 150°
2026-04-25 18:15 24.88057 120.89278 5399 ft 280 kts 120°
2026-04-25 18:15 24.87556 120.91293 5258 ft 270 kts 92°
2026-04-25 18:15 24.87906 120.93256 5154 ft 257 kts 65°
2026-04-25 18:15 24.88917 120.94765 5045 ft 242 kts 40°
2026-04-25 18:16 24.90142 120.95970 4932 ft 231 kts 46°
2026-04-25 18:16 24.90984 120.97441 4788 ft 227 kts 70°
2026-04-25 18:16 24.91172 121.00843 4293 ft 224 kts 95°
2026-04-25 18:17 24.91146 121.02539 4056 ft 220 kts 83°
2026-04-25 18:17 24.91768 121.04079 3920 ft 221 kts 54°
2026-04-25 18:17 24.92734 121.05380 3606 ft 219 kts 47°
2026-04-25 18:17 24.93722 121.06600 3427 ft 207 kts 48°
2026-04-25 18:18 24.94643 121.07764 3214 ft 198 kts 48°
2026-04-25 18:18 24.95536 121.08905 2908 ft 194 kts 48°
2026-04-25 18:18 24.96403 121.10015 2673 ft 188 kts 48°
2026-04-25 18:18 24.97055 121.10850 2500 ft 184 kts 48°
2026-04-25 18:19 24.97877 121.11900 2351 ft 177 kts 48°
2026-04-25 18:19 24.98638 121.12871 2272 ft 157 kts 47°
2026-04-25 18:19 24.99307 121.13724 2134 ft 140 kts 47°
2026-04-25 18:19 24.99953 121.14544 1974 ft 144 kts 47°
2026-04-25 18:20 25.00613 121.15384 1772 ft 145 kts 47°
2026-04-25 18:20 25.01267 121.16217 1578 ft 143 kts 47°
2026-04-25 18:20 25.01919 121.17047 1403 ft 143 kts 47°
2026-04-25 18:20 25.02564 121.17869 1203 ft 141 kts 48°
2026-04-25 18:21 25.03204 121.18684 1015 ft 138 kts 48°
2026-04-25 18:21 25.03818 121.19468 834 ft 132 kts 48°
2026-04-25 18:21 25.04408 121.20219 668 ft 127 kts 48°
2026-04-25 18:21 25.04992 121.20963 503 ft 131 kts 49°
2026-04-25 18:22 25.05593 121.21729 321 ft 134 kts 49°
2026-04-25 18:22 25.05792 121.21983 269 ft 135 kts 49°
2026-04-25 18:22 25.06805 121.23274 102 ft 125 kts 49°
2026-04-25 18:22 25.07328 121.23942 89 ft 89 kts 49°
2026-04-25 18:23 25.07507 121.24163 92 ft 15 kts 41°
2026-04-25 18:23 25.07554 121.24199 92 ft 7 kts 32°
2026-04-25 18:23 25.07627 121.24236 91 ft 17 kts 17°
2026-04-25 18:23 25.07721 121.24258 92 ft 16 kts 11°
2026-04-25 18:24 25.07846 121.24273 89 ft 16 kts 356°
2026-04-25 18:24 25.07890 121.24268 92 ft 0 kts 353°